Multibeam Report for EX0909


Ship Name: Okeanos Explorer
Chief Scientist: Malik, Mashkoor
University of New Hampshire, Center for Coastal and Ocean Mapping (UNH/CCOM)
Source Organization: National Oceanic and Atmospheric Administration (NOAA)
Start Date: 2009-08-21
End Date: 2009-11-15


View ISO Metadata

Visit the full NCEI Bathymetry Viewer


Multibeam Bathymetry

Cruise Details

Project: Legs 1 through 4 Mapping Field Trials
Instrument: Simrad EM302

Data Quality

Number of Files: 1060
Number of Records: 992892
BATHYMETRY DATA Quantity Percentage
Number of Beams 81516096 100%
Number of Good Beams 72761397 89.26%
Number of Zero Beams 0 0%
Number of Flagged Beams 8754699 10.74%

Navigation Totals

Total Time: 1222.5798 hours
Total Track Length: 20456.6617 km
Average Speed: 16.732 km/hr (9.0346 knots)

Cruise Bounds

Northern Extent: 25.001951
Southern Extent: 18.421831
Western Extent: -174.17543
Eastern Extent: -153.27669

Limits

Minimum Sonar Depth 0 Maximum Sonar Depth 8.7096
Minimum Altitude 0 Maximum Altitude 5930.1606
Minimum Depth 3.4458 Maximum Depth 6543.5093

File Information

Full Resolution Bathymetry as collected (raw): 623

Files File Size Description
0000_20090822_210611_EX.mb58.gz 164.34MB Kongsberg multibeam vendor format
0000_20090825_214655_EX.mb58.gz 84.50MB Kongsberg multibeam vendor format
0000_20090826_060627_EX.mb58.gz 75.68MB Kongsberg multibeam vendor format
0000_20090831_215444_EX.mb58.gz 29.36MB Kongsberg multibeam vendor format
0000_20090912_214507_EX.mb58.gz 241.30MB Kongsberg multibeam vendor format
0000_20090915_031554_EX.mb58.gz 75.76MB Kongsberg multibeam vendor format
0000_20090915_183202_EX.mb58.gz 69.00MB Kongsberg multibeam vendor format
0000_20090925_194808_EX.mb58.gz 23.90MB Kongsberg multibeam vendor format
0000_20091002_030850_EX.mb58.gz 322.63MB Kongsberg multibeam vendor format
0000_20091003_164419_EX.mb58.gz 136.66MB Kongsberg multibeam vendor format
0000_20091003_232450_EX.mb58.gz 26.33MB Kongsberg multibeam vendor format
0000_20091007_160407_EX.mb58.gz 9.57MB Kongsberg multibeam vendor format
0000_20091013_082827_EX.mb58.gz 6.34MB Kongsberg multibeam vendor format
0000_20091017_100629_EX.mb58.gz 59.82MB Kongsberg multibeam vendor format
0000_20091027_054015_EX.mb58.gz 453.60MB Kongsberg multibeam vendor format
0000_20091028_055356_EX.mb58.gz 73.84MB Kongsberg multibeam vendor format
0000_20091031_165856_EX.mb58.gz 270.71MB Kongsberg multibeam vendor format
0001_20090823_003942_EX.mb58.gz 271.03MB Kongsberg multibeam vendor format
0001_20090825_233851_EX.mb58.gz 6.09MB Kongsberg multibeam vendor format
0001_20090826_074756_EX.mb58.gz 280.28MB Kongsberg multibeam vendor format
0001_20090831_223340_EX.mb58.gz 13.93MB Kongsberg multibeam vendor format
0001_20090913_040638_EX.mb58.gz 326.61MB Kongsberg multibeam vendor format
0001_20090915_045735_EX.mb58.gz 14.66MB Kongsberg multibeam vendor format
0001_20090915_200611_EX.mb58.gz 6.24MB Kongsberg multibeam vendor format
0001_20090925_201914_EX.mb58.gz 6.83MB Kongsberg multibeam vendor format
0001_20091002_085816_EX.mb58.gz 332.26MB Kongsberg multibeam vendor format
0001_20091004_000003_EX.mb58.gz 40.17MB Kongsberg multibeam vendor format
0001_20091004_110818_EX.mb58.gz 2.93MB Kongsberg multibeam vendor format
0001_20091007_161656_EX.mb58.gz 124.32MB Kongsberg multibeam vendor format
0001_20091013_083656_EX.mb58.gz 2.69MB Kongsberg multibeam vendor format
0001_20091017_112609_EX.mb58.gz 245.18MB Kongsberg multibeam vendor format
0001_20091027_114015_EX.mb58.gz 451.94MB Kongsberg multibeam vendor format
0001_20091028_070324_EX.mb58.gz 269.92MB Kongsberg multibeam vendor format
0001_20091031_225853_EX.mb58.gz 46.92MB Kongsberg multibeam vendor format
0002_20090823_063936_EX.mb58.gz 101.71MB Kongsberg multibeam vendor format
0002_20090825_234647_EX.mb58.gz 86.01MB Kongsberg multibeam vendor format
0002_20090826_134758_EX.mb58.gz 284.01MB Kongsberg multibeam vendor format
0002_20090831_225142_EX.mb58.gz 20.13MB Kongsberg multibeam vendor format
0002_20090913_100644_EX.mb58.gz 268.36MB Kongsberg multibeam vendor format
0002_20090915_051631_EX.mb58.gz 77.59MB Kongsberg multibeam vendor format
0002_20090915_231400_EX.mb58.gz 33.64MB Kongsberg multibeam vendor format
0002_20090925_202758_EX.mb58.gz 12.16MB Kongsberg multibeam vendor format
0002_20091002_145817_EX.mb58.gz 99.69MB Kongsberg multibeam vendor format
0002_20091004_010542_EX.mb58.gz 45.21MB Kongsberg multibeam vendor format
0002_20091004_111226_EX.mb58.gz 176.15MB Kongsberg multibeam vendor format
0002_20091007_190019_EX.mb58.gz 141.74MB Kongsberg multibeam vendor format
0002_20091013_084034_EX.mb58.gz 11.25MB Kongsberg multibeam vendor format
0002_20091017_165214_EX.mb58.gz 12.69MB Kongsberg multibeam vendor format
0002_20091027_174016_EX.mb58.gz 28.62MB Kongsberg multibeam vendor format
0002_20091028_130326_EX.mb58.gz 268.89MB Kongsberg multibeam vendor format
0002_20091101_000034_EX.mb58.gz 99.96MB Kongsberg multibeam vendor format
0003_20090823_085737_EX.mb58.gz 77.13MB Kongsberg multibeam vendor format
0003_20090826_014019_EX.mb58.gz 7.71MB Kongsberg multibeam vendor format
0003_20090826_194800_EX.mb58.gz 279.45MB Kongsberg multibeam vendor format
0003_20090831_231742_EX.mb58.gz 14.62MB Kongsberg multibeam vendor format
0003_20090913_160644_EX.mb58.gz 142.29MB Kongsberg multibeam vendor format
0003_20090915_070025_EX.mb58.gz 20.06MB Kongsberg multibeam vendor format
0003_20090916_000008_EX.mb58.gz 262.83MB Kongsberg multibeam vendor format
0003_20090925_204337_EX.mb58.gz 5.92MB Kongsberg multibeam vendor format
0003_20091002_171952_EX.mb58.gz 100.53MB Kongsberg multibeam vendor format
0003_20091004_021816_EX.mb58.gz 59.26MB Kongsberg multibeam vendor format
0003_20091004_151508_EX.mb58.gz 20.25MB Kongsberg multibeam vendor format
0003_20091007_220612_EX.mb58.gz 104.1KB Kongsberg multibeam vendor format
0003_20091013_085542_EX.mb58.gz 11.08MB Kongsberg multibeam vendor format
0003_20091017_170909_EX.mb58.gz 219.20MB Kongsberg multibeam vendor format
0003_20091027_180219_EX.mb58.gz 116.48MB Kongsberg multibeam vendor format
0003_20091028_190325_EX.mb58.gz 221.42MB Kongsberg multibeam vendor format
0003_20091101_021110_EX.mb58.gz 18.18MB Kongsberg multibeam vendor format
0004_20090823_104217_EX.mb58.gz 259.31MB Kongsberg multibeam vendor format
0004_20090826_015042_EX.mb58.gz 22.77MB Kongsberg multibeam vendor format
0004_20090827_014801_EX.mb58.gz 27.56MB Kongsberg multibeam vendor format
0004_20090831_233658_EX.mb58.gz 5.74MB Kongsberg multibeam vendor format
0004_20090913_191844_EX.mb58.gz 210.15MB Kongsberg multibeam vendor format
0004_20090915_072748_EX.mb58.gz 137.56MB Kongsberg multibeam vendor format
0004_20090916_060005_EX.mb58.gz 133.88MB Kongsberg multibeam vendor format
0004_20090925_205104_EX.mb58.gz 15.18MB Kongsberg multibeam vendor format
0004_20091002_192920_EX.mb58.gz 82.58MB Kongsberg multibeam vendor format
0004_20091004_034252_EX.mb58.gz 53.01MB Kongsberg multibeam vendor format
0004_20091004_154255_EX.mb58.gz 141.59MB Kongsberg multibeam vendor format
0004_20091007_230029_EX.mb58.gz 45.52MB Kongsberg multibeam vendor format
0004_20091013_091035_EX.mb58.gz 17.07MB Kongsberg multibeam vendor format
0004_20091017_231225_EX.mb58.gz 13.02MB Kongsberg multibeam vendor format
0004_20091027_193115_EX.mb58.gz 8.72MB Kongsberg multibeam vendor format
0004_20091029_000003_EX.mb58.gz 265.08MB Kongsberg multibeam vendor format
0004_20091101_023446_EX.mb58.gz 271.05MB Kongsberg multibeam vendor format
0005_20090823_164216_EX.mb58.gz 64.47MB Kongsberg multibeam vendor format
0005_20090826_022217_EX.mb58.gz 86.00MB Kongsberg multibeam vendor format
0005_20090827_022422_EX.mb58.gz 73.88MB Kongsberg multibeam vendor format
0005_20090831_234823_EX.mb58.gz 42.96MB Kongsberg multibeam vendor format
0005_20090914_000108_EX.mb58.gz 266.63MB Kongsberg multibeam vendor format
0005_20090915_103254_EX.mb58.gz 10.42MB Kongsberg multibeam vendor format
0005_20090916_090305_EX.mb58.gz 76.86MB Kongsberg multibeam vendor format
0005_20090925_211047_EX.mb58.gz 3.95MB Kongsberg multibeam vendor format
0005_20091002_211445_EX.mb58.gz 230.77MB Kongsberg multibeam vendor format
0005_20091004_045101_EX.mb58.gz 57.01MB Kongsberg multibeam vendor format
0005_20091004_185006_EX.mb58.gz 19.47MB Kongsberg multibeam vendor format
0005_20091008_000010_EX.mb58.gz 80.17MB Kongsberg multibeam vendor format
0005_20091017_232952_EX.mb58.gz 22.68MB Kongsberg multibeam vendor format
0005_20091027_193804_EX.mb58.gz 104.27MB Kongsberg multibeam vendor format
0005_20091029_060028_EX.mb58.gz 273.06MB Kongsberg multibeam vendor format
0005_20091101_083440_EX.mb58.gz 116.96MB Kongsberg multibeam vendor format
0006_20090823_181257_EX.mb58.gz 36.95MB Kongsberg multibeam vendor format
0006_20090826_041542_EX.mb58.gz 56.27MB Kongsberg multibeam vendor format
0006_20090827_040207_EX.mb58.gz 272.90MB Kongsberg multibeam vendor format
0006_20090901_004454_EX.mb58.gz 14.34MB Kongsberg multibeam vendor format
0006_20090914_060107_EX.mb58.gz 266.31MB Kongsberg multibeam vendor format
0006_20090915_104622_EX.mb58.gz 156.27MB Kongsberg multibeam vendor format
0006_20090916_104732_EX.mb58.gz 3.51MB Kongsberg multibeam vendor format
0006_20090925_211554_EX.mb58.gz 6.85MB Kongsberg multibeam vendor format
0006_20091003_010549_EX.mb58.gz 158.09MB Kongsberg multibeam vendor format
0006_20091004_061112_EX.mb58.gz 46.04MB Kongsberg multibeam vendor format
0006_20091004_191628_EX.mb58.gz 171.57MB Kongsberg multibeam vendor format
0006_20091008_014330_EX.mb58.gz 21.79MB Kongsberg multibeam vendor format
0006_20091018_000009_EX.mb58.gz 212.93MB Kongsberg multibeam vendor format
0006_20091027_205710_EX.mb58.gz 6.99MB Kongsberg multibeam vendor format
0006_20091029_120026_EX.mb58.gz 273.24MB Kongsberg multibeam vendor format
0006_20091101_111009_EX.mb58.gz 18.61MB Kongsberg multibeam vendor format
0007_20090823_190553_EX.mb58.gz 43.23MB Kongsberg multibeam vendor format
0007_20090826_053044_EX.mb58.gz 2.19MB Kongsberg multibeam vendor format
0007_20090827_100209_EX.mb58.gz 277.53MB Kongsberg multibeam vendor format
0007_20090901_011609_EX.mb58.gz 3.53MB Kongsberg multibeam vendor format
0007_20090914_120110_EX.mb58.gz 266.10MB Kongsberg multibeam vendor format
0007_20090915_141555_EX.mb58.gz 60.85MB Kongsberg multibeam vendor format
0007_20090916_105216_EX.mb58.gz 24.96MB Kongsberg multibeam vendor format
0007_20090925_212448_EX.mb58.gz 20.37MB Kongsberg multibeam vendor format
0007_20091003_034436_EX.mb58.gz 280.36MB Kongsberg multibeam vendor format
0007_20091004_071114_EX.mb58.gz 50.31MB Kongsberg multibeam vendor format
0007_20091004_230428_EX.mb58.gz 24.10MB Kongsberg multibeam vendor format
0007_20091008_021104_EX.mb58.gz 275.24MB Kongsberg multibeam vendor format
0007_20091018_043845_EX.mb58.gz 12.34MB Kongsberg multibeam vendor format
0007_20091027_210223_EX.mb58.gz 78.44MB Kongsberg multibeam vendor format
0007_20091029_180027_EX.mb58.gz 28.33MB Kongsberg multibeam vendor format
0007_20091101_113444_EX.mb58.gz 268.78MB Kongsberg multibeam vendor format
0008_20090823_200418_EX.mb58.gz 5.83MB Kongsberg multibeam vendor format
0008_20090826_054304_EX.mb58.gz 4.73MB Kongsberg multibeam vendor format
0008_20090827_160209_EX.mb58.gz 168.32MB Kongsberg multibeam vendor format
0008_20090901_012456_EX.mb58.gz 18.70MB Kongsberg multibeam vendor format
0008_20090914_180115_EX.mb58.gz 263.54MB Kongsberg multibeam vendor format
0008_20090915_153819_EX.mb58.gz 18.92MB Kongsberg multibeam vendor format
0008_20090916_112543_EX.mb58.gz 1.66MB Kongsberg multibeam vendor format
0008_20090925_215120_EX.mb58.gz 20.54MB Kongsberg multibeam vendor format
0008_20091003_074325_EX.mb58.gz 265.19MB Kongsberg multibeam vendor format
0008_20091004_082301_EX.mb58.gz 55.01MB Kongsberg multibeam vendor format
0008_20091004_233744_EX.mb58.gz 16.47MB Kongsberg multibeam vendor format
0008_20091008_081106_EX.mb58.gz 103.89MB Kongsberg multibeam vendor format
0008_20091018_045509_EX.mb58.gz 269.64MB Kongsberg multibeam vendor format
0008_20091027_220146_EX.mb58.gz 11.07MB Kongsberg multibeam vendor format
0008_20091029_190521_EX.mb58.gz 223.82MB Kongsberg multibeam vendor format
0008_20091101_173443_EX.mb58.gz 259.37MB Kongsberg multibeam vendor format
0009_20090823_201255_EX.mb58.gz 265.59MB Kongsberg multibeam vendor format
0009_20090826_060228_EX.mb58.gz 97.5KB Kongsberg multibeam vendor format
0009_20090827_194711_EX.mb58.gz 17.26MB Kongsberg multibeam vendor format
0009_20090901_015031_EX.mb58.gz 8.11MB Kongsberg multibeam vendor format
0009_20090915_000111_EX.mb58.gz 109.51MB Kongsberg multibeam vendor format
0009_20090915_160300_EX.mb58.gz 23.55MB Kongsberg multibeam vendor format
0009_20090916_112751_EX.mb58.gz 268.25MB Kongsberg multibeam vendor format
0009_20090925_221754_EX.mb58.gz 21.57MB Kongsberg multibeam vendor format
0009_20091003_133005_EX.mb58.gz 127.61MB Kongsberg multibeam vendor format
0009_20091004_235955_EX.mb58.gz 58.28MB Kongsberg multibeam vendor format
0009_20091005_012123_EX.mb58.gz 52.07MB Kongsberg multibeam vendor format
0009_20091008_102720_EX.mb58.gz 20.53MB Kongsberg multibeam vendor format
0009_20091018_103849_EX.mb58.gz 18.07MB Kongsberg multibeam vendor format
0009_20091027_221023_EX.mb58.gz 11.46MB Kongsberg multibeam vendor format
0009_20091030_000005_EX.mb58.gz 273.29MB Kongsberg multibeam vendor format
0009_20091101_233438_EX.mb58.gz 30.30MB Kongsberg multibeam vendor format
0010_20090824_021300_EX.mb58.gz 266.37MB Kongsberg multibeam vendor format
0010_20090827_201019_EX.mb58.gz 172.53MB Kongsberg multibeam vendor format
0010_20090901_020656_EX.mb58.gz 54.45MB Kongsberg multibeam vendor format
0010_20090915_163334_EX.mb58.gz 15.79MB Kongsberg multibeam vendor format
0010_20090916_172750_EX.mb58.gz 30.73MB Kongsberg multibeam vendor format
0010_20090921_233218_EX.mb58.gz 23.49MB Kongsberg multibeam vendor format
0010_20091005_023244_EX.mb58.gz 65.18MB Kongsberg multibeam vendor format
0010_20091006_202029_EX.mb58.gz 79.57MB Kongsberg multibeam vendor format
0010_20091008_105404_EX.mb58.gz 87.37MB Kongsberg multibeam vendor format
0010_20091018_110243_EX.mb58.gz 301.90MB Kongsberg multibeam vendor format
0010_20091027_231844_EX.mb58.gz 89.4KB Kongsberg multibeam vendor format
0010_20091030_060007_EX.mb58.gz 276.67MB Kongsberg multibeam vendor format
0010_20091102_001702_EX.mb58.gz 4.42MB Kongsberg multibeam vendor format
0011_20090824_081259_EX.mb58.gz 0.93MB Kongsberg multibeam vendor format
0011_20090828_000005_EX.mb58.gz 276.01MB Kongsberg multibeam vendor format
0011_20090901_032003_EX.mb58.gz 18.24MB Kongsberg multibeam vendor format
0011_20090915_165359_EX.mb58.gz 49.53MB Kongsberg multibeam vendor format
0011_20090916_180858_EX.mb58.gz 52.94MB Kongsberg multibeam vendor format
0011_20090922_000121_EX.mb58.gz 285.03MB Kongsberg multibeam vendor format
0011_20091005_035853_EX.mb58.gz 4.53MB Kongsberg multibeam vendor format
0011_20091006_232300_EX.mb58.gz 28.61MB Kongsberg multibeam vendor format
0011_20091008_124815_EX.mb58.gz 269.73MB Kongsberg multibeam vendor format
0011_20091018_170246_EX.mb58.gz 36.02MB Kongsberg multibeam vendor format
0011_20091027_231847_EX.mb58.gz 70.39MB Kongsberg multibeam vendor format
0011_20091030_120004_EX.mb58.gz 272.90MB Kongsberg multibeam vendor format
0011_20091102_002255_EX.mb58.gz 275.28MB Kongsberg multibeam vendor format
0012_20090824_081414_EX.mb58.gz 58.44MB Kongsberg multibeam vendor format
0012_20090828_060009_EX.mb58.gz 268.27MB Kongsberg multibeam vendor format
0012_20090901_034340_EX.mb58.gz 19.58MB Kongsberg multibeam vendor format
0012_20090915_205537_EX.mb58.gz 16.38MB Kongsberg multibeam vendor format
0012_20090916_191853_EX.mb58.gz 124.48MB Kongsberg multibeam vendor format
0012_20090922_060127_EX.mb58.gz 146.58MB Kongsberg multibeam vendor format
0012_20091005_040454_EX.mb58.gz 68.24MB Kongsberg multibeam vendor format
0012_20091007_000115_EX.mb58.gz 27.27MB Kongsberg multibeam vendor format
0012_20091008_184814_EX.mb58.gz 22.48MB Kongsberg multibeam vendor format
0012_20091018_175051_EX.mb58.gz 15.83MB Kongsberg multibeam vendor format
0012_20091030_180001_EX.mb58.gz 94.01MB Kongsberg multibeam vendor format
0012_20091102_062255_EX.mb58.gz 115.45MB Kongsberg multibeam vendor format
0013_20090824_193922_EX.mb58.gz 246.33MB Kongsberg multibeam vendor format
0013_20090828_120001_EX.mb58.gz 271.98MB Kongsberg multibeam vendor format
0013_20090901_041430_EX.mb58.gz 20.99MB Kongsberg multibeam vendor format
0013_20090915_211709_EX.mb58.gz 18.34MB Kongsberg multibeam vendor format
0013_20090916_220359_EX.mb58.gz 20.19MB Kongsberg multibeam vendor format
0013_20090922_091556_EX.mb58.gz 3.10MB Kongsberg multibeam vendor format
0013_20091005_053210_EX.mb58.gz 20.44MB Kongsberg multibeam vendor format
0013_20091007_003715_EX.mb58.gz 90.95MB Kongsberg multibeam vendor format
0013_20091008_191801_EX.mb58.gz 16.33MB Kongsberg multibeam vendor format
0013_20091018_181201_EX.mb58.gz 261.80MB Kongsberg multibeam vendor format
0013_20091030_203503_EX.mb58.gz 154.71MB Kongsberg multibeam vendor format
0013_20091102_085603_EX.mb58.gz 34.10MB Kongsberg multibeam vendor format
0014_20090825_011530_EX.mb58.gz 27.54MB Kongsberg multibeam vendor format
0014_20090828_180003_EX.mb58.gz 277.92MB Kongsberg multibeam vendor format
0014_20090901_044754_EX.mb58.gz 10.38MB Kongsberg multibeam vendor format
0014_20090915_214110_EX.mb58.gz 12.49MB Kongsberg multibeam vendor format
0014_20090916_233127_EX.mb58.gz 271.45MB Kongsberg multibeam vendor format
0014_20090922_092004_EX.mb58.gz 94.13MB Kongsberg multibeam vendor format
0014_20091005_055847_EX.mb58.gz 62.29MB Kongsberg multibeam vendor format
0014_20091007_023923_EX.mb58.gz 26.93MB Kongsberg multibeam vendor format
0014_20091008_193905_EX.mb58.gz 102.73MB Kongsberg multibeam vendor format
0014_20091018_230544_EX.mb58.gz 42.19MB Kongsberg multibeam vendor format
0014_20091031_000024_EX.mb58.gz 270.71MB Kongsberg multibeam vendor format
0014_20091102_094300_EX.mb58.gz 58.30MB Kongsberg multibeam vendor format
0015_20090825_015203_EX.mb58.gz 22.88MB Kongsberg multibeam vendor format
0015_20090828_235954_EX.mb58.gz 273.11MB Kongsberg multibeam vendor format
0015_20090917_053129_EX.mb58.gz 30.63MB Kongsberg multibeam vendor format
0015_20090922_112616_EX.mb58.gz 3.21MB Kongsberg multibeam vendor format
0015_20091005_072326_EX.mb58.gz 18.14MB Kongsberg multibeam vendor format
0015_20091007_031453_EX.mb58.gz 149.35MB Kongsberg multibeam vendor format
0015_20091008_230002_EX.mb58.gz 40.50MB Kongsberg multibeam vendor format
0015_20091018_235958_EX.mb58.gz 23.19MB Kongsberg multibeam vendor format
0015_20091031_060021_EX.mb58.gz 270.80MB Kongsberg multibeam vendor format
0015_20091102_110944_EX.mb58.gz 248.82MB Kongsberg multibeam vendor format
0016_20090825_023358_EX.mb58.gz 175.61MB Kongsberg multibeam vendor format
0016_20090829_060000_EX.mb58.gz 46.38MB Kongsberg multibeam vendor format
0016_20090917_061300_EX.mb58.gz 279.67MB Kongsberg multibeam vendor format
0016_20090922_113029_EX.mb58.gz 277.12MB Kongsberg multibeam vendor format
0016_20091005_074748_EX.mb58.gz 133.92MB Kongsberg multibeam vendor format
0016_20091007_063443_EX.mb58.gz 2.48MB Kongsberg multibeam vendor format
0016_20091009_011123_EX.mb58.gz 271.07MB Kongsberg multibeam vendor format
0016_20091019_003110_EX.mb58.gz 18.60MB Kongsberg multibeam vendor format
0016_20091031_120019_EX.mb58.gz 215.80MB Kongsberg multibeam vendor format
0016_20091102_170937_EX.mb58.gz 247.58MB Kongsberg multibeam vendor format
0017_20090825_063050_EX.mb58.gz 68.43MB Kongsberg multibeam vendor format
0017_20090829_071403_EX.mb58.gz 31.92MB Kongsberg multibeam vendor format
0017_20090917_121306_EX.mb58.gz 183.51MB Kongsberg multibeam vendor format
0017_20090922_173030_EX.mb58.gz 117.74MB Kongsberg multibeam vendor format
0017_20091005_104617_EX.mb58.gz 16.05MB Kongsberg multibeam vendor format
0017_20091007_063801_EX.mb58.gz 75.88MB Kongsberg multibeam vendor format
0017_20091009_071120_EX.mb58.gz 8.53MB Kongsberg multibeam vendor format
0017_20091019_005604_EX.mb58.gz 355.26MB Kongsberg multibeam vendor format
0017_20091031_164748_EX.mb58.gz 7.60MB Kongsberg multibeam vendor format
0017_20091102_230939_EX.mb58.gz 74.81MB Kongsberg multibeam vendor format
0018_20090825_080244_EX.mb58.gz 265.81MB Kongsberg multibeam vendor format
0018_20090829_075708_EX.mb58.gz 267.27MB Kongsberg multibeam vendor format
0018_20090917_161621_EX.mb58.gz 1.78MB Kongsberg multibeam vendor format
0018_20090922_200444_EX.mb58.gz 3.97MB Kongsberg multibeam vendor format
0018_20091005_110734_EX.mb58.gz 161.26MB Kongsberg multibeam vendor format
0018_20091007_081733_EX.mb58.gz 12.94MB Kongsberg multibeam vendor format
0018_20091009_072235_EX.mb58.gz 17.10MB Kongsberg multibeam vendor format
0018_20091019_060601_EX.mb58.gz 11.00MB Kongsberg multibeam vendor format
0018_20091103_005520_EX.mb58.gz 2.83MB Kongsberg multibeam vendor format
0018_20091111_100838_EX.mb58.gz 2.73MB Kongsberg multibeam vendor format
0019_20090825_140244_EX.mb58.gz 187.07MB Kongsberg multibeam vendor format
0019_20090829_135707_EX.mb58.gz 269.39MB Kongsberg multibeam vendor format
0019_20090917_161841_EX.mb58.gz 64.49MB Kongsberg multibeam vendor format
0019_20090922_200956_EX.mb58.gz 16.07MB Kongsberg multibeam vendor format
0019_20091005_144142_EX.mb58.gz 18.95MB Kongsberg multibeam vendor format
0019_20091007_083336_EX.mb58.gz 21.49MB Kongsberg multibeam vendor format
0019_20091009_074514_EX.mb58.gz 266.94MB Kongsberg multibeam vendor format
0019_20091019_062049_EX.mb58.gz 320.97MB Kongsberg multibeam vendor format
0019_20091103_005911_EX.mb58.gz 129.73MB Kongsberg multibeam vendor format
0019_20091111_101559_EX.mb58.gz 78.87MB Kongsberg multibeam vendor format
0020_20090825_214437_EX.mb58.gz 482.5KB Kongsberg multibeam vendor format
0020_20090829_195712_EX.mb58.gz 133.19MB Kongsberg multibeam vendor format
0020_20090917_174411_EX.mb58.gz 4.70MB Kongsberg multibeam vendor format
0020_20090922_203119_EX.mb58.gz 69.33MB Kongsberg multibeam vendor format
0020_20091005_150654_EX.mb58.gz 124.88MB Kongsberg multibeam vendor format
0020_20091007_090038_EX.mb58.gz 1.50MB Kongsberg multibeam vendor format
0020_20091009_134514_EX.mb58.gz 90.41MB Kongsberg multibeam vendor format
0020_20091019_113100_EX.mb58.gz 3.92MB Kongsberg multibeam vendor format
0020_20091103_034708_EX.mb58.gz 10.36MB Kongsberg multibeam vendor format
0020_20091111_131008_EX.mb58.gz 244.19MB Kongsberg multibeam vendor format
0021_20090829_225506_EX.mb58.gz 64.20MB Kongsberg multibeam vendor format
0021_20090901_053501_EX.mb58.gz 96.10MB Kongsberg multibeam vendor format
0021_20090917_175028_EX.mb58.gz 197.98MB Kongsberg multibeam vendor format
0021_20090922_232417_EX.mb58.gz 26.10MB Kongsberg multibeam vendor format
0021_20091005_175313_EX.mb58.gz 17.15MB Kongsberg multibeam vendor format
0021_20091007_090225_EX.mb58.gz 12.97MB Kongsberg multibeam vendor format
0021_20091009_154908_EX.mb58.gz 15.68MB Kongsberg multibeam vendor format
0021_20091019_113609_EX.mb58.gz 46.34MB Kongsberg multibeam vendor format
0021_20091103_192544_EX.mb58.gz 211.45MB Kongsberg multibeam vendor format
0021_20091111_191014_EX.mb58.gz 29.96MB Kongsberg multibeam vendor format
0022_20090830_001857_EX.mb58.gz 211.73MB Kongsberg multibeam vendor format
0022_20090901_074524_EX.mb58.gz 30.51MB Kongsberg multibeam vendor format
0022_20090901_083014_EX.mb58.gz 266.17MB Kongsberg multibeam vendor format
0022_20090917_225134_EX.mb58.gz 53.92MB Kongsberg multibeam vendor format
0022_20090922_235955_EX.mb58.gz 116.88MB Kongsberg multibeam vendor format
0022_20091005_181631_EX.mb58.gz 126.91MB Kongsberg multibeam vendor format
0022_20091007_091744_EX.mb58.gz 2.67MB Kongsberg multibeam vendor format
0022_20091009_160954_EX.mb58.gz 154.89MB Kongsberg multibeam vendor format
0022_20091019_123731_EX.mb58.gz 7.93MB Kongsberg multibeam vendor format
0022_20091104_000237_EX.mb58.gz 18.82MB Kongsberg multibeam vendor format
0023_20090830_045121_EX.mb58.gz 280.74MB Kongsberg multibeam vendor format
0023_20090901_143015_EX.mb58.gz 115.66MB Kongsberg multibeam vendor format
0023_20090918_000006_EX.mb58.gz 276.95MB Kongsberg multibeam vendor format
0023_20090923_023822_EX.mb58.gz 1.71MB Kongsberg multibeam vendor format
0023_20091005_210604_EX.mb58.gz 19.96MB Kongsberg multibeam vendor format
0023_20091007_092107_EX.mb58.gz 12.34MB Kongsberg multibeam vendor format
0023_20091009_215324_EX.mb58.gz 10.82MB Kongsberg multibeam vendor format
0023_20091019_124748_EX.mb58.gz 56.52MB Kongsberg multibeam vendor format
0023_20091104_002754_EX.mb58.gz 39.42MB Kongsberg multibeam vendor format
0024_20090830_105121_EX.mb58.gz 213.04MB Kongsberg multibeam vendor format
0024_20090901_170652_EX.mb58.gz 28.11MB Kongsberg multibeam vendor format
0024_20090918_060010_EX.mb58.gz 97.21MB Kongsberg multibeam vendor format
0024_20090923_024037_EX.mb58.gz 24.63MB Kongsberg multibeam vendor format
0024_20091005_213244_EX.mb58.gz 24.45MB Kongsberg multibeam vendor format
0024_20091007_093603_EX.mb58.gz 3.22MB Kongsberg multibeam vendor format
0024_20091009_231111_EX.mb58.gz 73.57MB Kongsberg multibeam vendor format
0024_20091019_140045_EX.mb58.gz 2.13MB Kongsberg multibeam vendor format
0024_20091104_181310_EX.mb58.gz 88.20MB Kongsberg multibeam vendor format
0025_20090830_152556_EX.mb58.gz 20.92MB Kongsberg multibeam vendor format
0025_20090901_174506_EX.mb58.gz 266.30MB Kongsberg multibeam vendor format
0025_20090918_080622_EX.mb58.gz 3.55MB Kongsberg multibeam vendor format
0025_20090923_031306_EX.mb58.gz 1.98MB Kongsberg multibeam vendor format
0025_20091005_225335_EX.mb58.gz 49.97MB Kongsberg multibeam vendor format
0025_20091007_093958_EX.mb58.gz 53.79MB Kongsberg multibeam vendor format
0025_20091010_004934_EX.mb58.gz 161.11MB Kongsberg multibeam vendor format
0025_20091019_140330_EX.mb58.gz 63.49MB Kongsberg multibeam vendor format
0025_20091104_201948_EX.mb58.gz 102.73MB Kongsberg multibeam vendor format
0026_20090830_155314_EX.mb58.gz 269.36MB Kongsberg multibeam vendor format
0026_20090901_234500_EX.mb58.gz 264.27MB Kongsberg multibeam vendor format
0026_20090918_081059_EX.mb58.gz 59.71MB Kongsberg multibeam vendor format
0026_20090923_031543_EX.mb58.gz 226.77MB Kongsberg multibeam vendor format
0026_20091006_000004_EX.mb58.gz 34.30MB Kongsberg multibeam vendor format
0026_20091007_104833_EX.mb58.gz 23.43MB Kongsberg multibeam vendor format
0026_20091010_042454_EX.mb58.gz 16.52MB Kongsberg multibeam vendor format
0026_20091105_024736_EX.mb58.gz 92.85MB Kongsberg multibeam vendor format
0027_20090830_215315_EX.mb58.gz 96.20MB Kongsberg multibeam vendor format
0027_20090902_054501_EX.mb58.gz 265.38MB Kongsberg multibeam vendor format
0027_20090918_093101_EX.mb58.gz 3.58MB Kongsberg multibeam vendor format
0027_20090923_082007_EX.mb58.gz 2.99MB Kongsberg multibeam vendor format
0027_20091006_004606_EX.mb58.gz 19.73MB Kongsberg multibeam vendor format
0027_20091007_111954_EX.mb58.gz 116.41MB Kongsberg multibeam vendor format
0027_20091010_044701_EX.mb58.gz 265.84MB Kongsberg multibeam vendor format
0027_20091019_152025_EX.mb58.gz 18.51MB Kongsberg multibeam vendor format
0027_20091105_083022_EX.mb58.gz 122.84MB Kongsberg multibeam vendor format
0028_20090831_000200_EX.mb58.gz 245.43MB Kongsberg multibeam vendor format
0028_20090902_114459_EX.mb58.gz 257.32MB Kongsberg multibeam vendor format
0028_20090918_093549_EX.mb58.gz 277.01MB Kongsberg multibeam vendor format
0028_20090923_082408_EX.mb58.gz 13.45MB Kongsberg multibeam vendor format
0028_20091006_011302_EX.mb58.gz 105.81MB Kongsberg multibeam vendor format
0028_20091007_135205_EX.mb58.gz 3.69MB Kongsberg multibeam vendor format
0028_20091010_104655_EX.mb58.gz 83.45MB Kongsberg multibeam vendor format
0028_20091019_154345_EX.mb58.gz 58.12MB Kongsberg multibeam vendor format
0028_20091105_110741_EX.mb58.gz 255.25MB Kongsberg multibeam vendor format
0029_20090831_053021_EX.mb58.gz 76.54MB Kongsberg multibeam vendor format
0029_20090902_174502_EX.mb58.gz 261.32MB Kongsberg multibeam vendor format
0029_20090918_153550_EX.mb58.gz 253.23MB Kongsberg multibeam vendor format
0029_20090923_084217_EX.mb58.gz 3.43MB Kongsberg multibeam vendor format
0029_20091006_033347_EX.mb58.gz 17.09MB Kongsberg multibeam vendor format
0029_20091007_135701_EX.mb58.gz 86.83MB Kongsberg multibeam vendor format
0029_20091010_124116_EX.mb58.gz 15.81MB Kongsberg multibeam vendor format
0029_20091019_164028_EX.mb58.gz 26.27MB Kongsberg multibeam vendor format
0029_20091105_164324_EX.mb58.gz 46.34MB Kongsberg multibeam vendor format
0030_20090831_071142_EX.mb58.gz 24.81MB Kongsberg multibeam vendor format
0030_20090902_234505_EX.mb58.gz 209.95MB Kongsberg multibeam vendor format
0030_20090918_210712_EX.mb58.gz 1.04MB Kongsberg multibeam vendor format
0030_20090923_084646_EX.mb58.gz 271.53MB Kongsberg multibeam vendor format
0030_20091006_035641_EX.mb58.gz 94.58MB Kongsberg multibeam vendor format
0030_20091010_130233_EX.mb58.gz 247.25MB Kongsberg multibeam vendor format
0030_20091016_021714_EX.mb58.gz 110.66MB Kongsberg multibeam vendor format
0030_20091019_171403_EX.mb58.gz 84.51MB Kongsberg multibeam vendor format
0030_20091105_174523_EX.mb58.gz 262.88MB Kongsberg multibeam vendor format
0031_20090831_074507_EX.mb58.gz 5.78MB Kongsberg multibeam vendor format
0031_20090903_044541_EX.mb58.gz 222.10MB Kongsberg multibeam vendor format
0031_20090918_210834_EX.mb58.gz 3.00MB Kongsberg multibeam vendor format
0031_20090923_144638_EX.mb58.gz 113.21MB Kongsberg multibeam vendor format
0031_20091006_060127_EX.mb58.gz 18.14MB Kongsberg multibeam vendor format
0031_20091010_203311_EX.mb58.gz 68.33MB Kongsberg multibeam vendor format
0031_20091016_044349_EX.mb58.gz 220.55MB Kongsberg multibeam vendor format
0031_20091019_182611_EX.mb58.gz 6.42MB Kongsberg multibeam vendor format
0031_20091105_234525_EX.mb58.gz 134.89MB Kongsberg multibeam vendor format
0032_20090831_075255_EX.mb58.gz 268.45MB Kongsberg multibeam vendor format
0032_20090903_095518_EX.mb58.gz 242.22MB Kongsberg multibeam vendor format
0032_20090918_211256_EX.mb58.gz 37.31MB Kongsberg multibeam vendor format
0032_20090923_171844_EX.mb58.gz 213.70MB Kongsberg multibeam vendor format
0032_20091006_062541_EX.mb58.gz 90.50MB Kongsberg multibeam vendor format
0032_20091010_231004_EX.mb58.gz 37.74MB Kongsberg multibeam vendor format
0032_20091016_084814_EX.mb58.gz 19.19MB Kongsberg multibeam vendor format
0032_20091019_183402_EX.mb58.gz 96.01MB Kongsberg multibeam vendor format
0032_20091106_024404_EX.mb58.gz 12.71MB Kongsberg multibeam vendor format
0033_20090831_135248_EX.mb58.gz 266.18MB Kongsberg multibeam vendor format
0033_20090903_151814_EX.mb58.gz 62.7KB Kongsberg multibeam vendor format
0033_20090918_231052_EX.mb58.gz 37.91MB Kongsberg multibeam vendor format
0033_20090923_230838_EX.mb58.gz 38.21MB Kongsberg multibeam vendor format
0033_20091006_082541_EX.mb58.gz 15.00MB Kongsberg multibeam vendor format
0033_20091011_000052_EX.mb58.gz 47.83MB Kongsberg multibeam vendor format
0033_20091016_090241_EX.mb58.gz 62.91MB Kongsberg multibeam vendor format
0033_20091019_194052_EX.mb58.gz 7.47MB Kongsberg multibeam vendor format
0033_20091106_030146_EX.mb58.gz 66.34MB Kongsberg multibeam vendor format
0034_20090831_195248_EX.mb58.gz 68.12MB Kongsberg multibeam vendor format
0034_20090918_235957_EX.mb58.gz 21.60MB Kongsberg multibeam vendor format
0034_20090924_000000_EX.mb58.gz 27.82MB Kongsberg multibeam vendor format
0034_20091006_084543_EX.mb58.gz 88.70MB Kongsberg multibeam vendor format
0034_20091011_010527_EX.mb58.gz 2.65MB Kongsberg multibeam vendor format
0034_20091016_095123_EX.mb58.gz 9.54MB Kongsberg multibeam vendor format
0034_20091019_194833_EX.mb58.gz 109.48MB Kongsberg multibeam vendor format
0034_20091106_043000_EX.mb58.gz 106.78MB Kongsberg multibeam vendor format
0035_20090831_212522_EX.mb58.gz 19.74MB Kongsberg multibeam vendor format
0035_20090919_002823_EX.mb58.gz 273.05MB Kongsberg multibeam vendor format
0035_20090924_005421_EX.mb58.gz 28.23MB Kongsberg multibeam vendor format
0035_20091006_104404_EX.mb58.gz 56.04MB Kongsberg multibeam vendor format
0035_20091011_010858_EX.mb58.gz 106.53MB Kongsberg multibeam vendor format
0035_20091016_095906_EX.mb58.gz 55.61MB Kongsberg multibeam vendor format
0035_20091019_205041_EX.mb58.gz 10.72MB Kongsberg multibeam vendor format
0035_20091106_064936_EX.mb58.gz 18.59MB Kongsberg multibeam vendor format
0036_20090919_062816_EX.mb58.gz 26.72MB Kongsberg multibeam vendor format
0036_20090924_013222_EX.mb58.gz 4.19MB Kongsberg multibeam vendor format
0036_20091006_115856_EX.mb58.gz 77.80MB Kongsberg multibeam vendor format
0036_20091011_032930_EX.mb58.gz 8.10MB Kongsberg multibeam vendor format
0036_20091016_104045_EX.mb58.gz 16.15MB Kongsberg multibeam vendor format
0036_20091019_210018_EX.mb58.gz 151.03MB Kongsberg multibeam vendor format
0036_20091106_071419_EX.mb58.gz 112.29MB Kongsberg multibeam vendor format
0037_20090919_070208_EX.mb58.gz 276.49MB Kongsberg multibeam vendor format
0037_20090924_013756_EX.mb58.gz 62.09MB Kongsberg multibeam vendor format
0037_20091006_134224_EX.mb58.gz 3.92MB Kongsberg multibeam vendor format
0037_20091011_034014_EX.mb58.gz 276.39MB Kongsberg multibeam vendor format
0037_20091016_105229_EX.mb58.gz 36.39MB Kongsberg multibeam vendor format
0037_20091019_222454_EX.mb58.gz 250.1KB Kongsberg multibeam vendor format
0037_20091106_095331_EX.mb58.gz 4.86MB Kongsberg multibeam vendor format
0038_20090919_130211_EX.mb58.gz 120.21MB Kongsberg multibeam vendor format
0038_20090924_030105_EX.mb58.gz 8.13MB Kongsberg multibeam vendor format
0038_20091006_134727_EX.mb58.gz 79.82MB Kongsberg multibeam vendor format
0038_20091011_094011_EX.mb58.gz 132.91MB Kongsberg multibeam vendor format
0038_20091016_111927_EX.mb58.gz 4.48MB Kongsberg multibeam vendor format
0038_20091019_232558_EX.mb58.gz 64.70MB Kongsberg multibeam vendor format
0038_20091106_100007_EX.mb58.gz 93.04MB Kongsberg multibeam vendor format
0039_20090919_153938_EX.mb58.gz 2.02MB Kongsberg multibeam vendor format
0039_20090924_031201_EX.mb58.gz 17.81MB Kongsberg multibeam vendor format
0039_20091006_153116_EX.mb58.gz 2.71MB Kongsberg multibeam vendor format
0039_20091011_115910_EX.mb58.gz 2.00MB Kongsberg multibeam vendor format
0039_20091016_112255_EX.mb58.gz 11.34MB Kongsberg multibeam vendor format
0039_20091020_000002_EX.mb58.gz 100.29MB Kongsberg multibeam vendor format
0039_20091106_120341_EX.mb58.gz 7.37MB Kongsberg multibeam vendor format
0040_20090919_154221_EX.mb58.gz 118.47MB Kongsberg multibeam vendor format
0040_20090924_033552_EX.mb58.gz 1.71MB Kongsberg multibeam vendor format
0040_20091006_153451_EX.mb58.gz 16.99MB Kongsberg multibeam vendor format
0040_20091011_120131_EX.mb58.gz 129.29MB Kongsberg multibeam vendor format
0040_20091016_113131_EX.mb58.gz 6.48MB Kongsberg multibeam vendor format
0040_20091020_005159_EX.mb58.gz 7.47MB Kongsberg multibeam vendor format
0040_20091106_121336_EX.mb58.gz 21.65MB Kongsberg multibeam vendor format
0041_20090919_182357_EX.mb58.gz 166.32MB Kongsberg multibeam vendor format
0041_20090924_033807_EX.mb58.gz 267.40MB Kongsberg multibeam vendor format
0041_20091006_155736_EX.mb58.gz 1.80MB Kongsberg multibeam vendor format
0041_20091011_144946_EX.mb58.gz 12.67MB Kongsberg multibeam vendor format
0041_20091016_113616_EX.mb58.gz 4.58MB Kongsberg multibeam vendor format
0041_20091020_010120_EX.mb58.gz 187.44MB Kongsberg multibeam vendor format
0041_20091106_124335_EX.mb58.gz 37.50MB Kongsberg multibeam vendor format
0042_20090919_231617_EX.mb58.gz 33.07MB Kongsberg multibeam vendor format
0042_20090924_093805_EX.mb58.gz 269.06MB Kongsberg multibeam vendor format
0042_20091006_155958_EX.mb58.gz 120.03MB Kongsberg multibeam vendor format
0042_20091011_150651_EX.mb58.gz 133.62MB Kongsberg multibeam vendor format
0042_20091016_113937_EX.mb58.gz 22.18MB Kongsberg multibeam vendor format
0042_20091020_023445_EX.mb58.gz 7.80MB Kongsberg multibeam vendor format
0042_20091106_133642_EX.mb58.gz 90.61MB Kongsberg multibeam vendor format
0043_20090920_000004_EX.mb58.gz 275.41MB Kongsberg multibeam vendor format
0043_20090924_153810_EX.mb58.gz 222.24MB Kongsberg multibeam vendor format
0043_20091006_184004_EX.mb58.gz 1.81MB Kongsberg multibeam vendor format
0043_20091011_180317_EX.mb58.gz 315.2KB Kongsberg multibeam vendor format
0043_20091016_115727_EX.mb58.gz 335.50MB Kongsberg multibeam vendor format
0043_20091020_024431_EX.mb58.gz 166.61MB Kongsberg multibeam vendor format
0043_20091106_153649_EX.mb58.gz 3.04MB Kongsberg multibeam vendor format
0044_20090920_060005_EX.mb58.gz 119.52MB Kongsberg multibeam vendor format
0044_20090924_203516_EX.mb58.gz 72.32MB Kongsberg multibeam vendor format
0044_20091006_184228_EX.mb58.gz 25.29MB Kongsberg multibeam vendor format
0044_20091011_180339_EX.mb58.gz 4.95MB Kongsberg multibeam vendor format
0044_20091016_175732_EX.mb58.gz 269.05MB Kongsberg multibeam vendor format
0044_20091020_040645_EX.mb58.gz 10.04MB Kongsberg multibeam vendor format
0044_20091106_154037_EX.mb58.gz 40.80MB Kongsberg multibeam vendor format
0045_20090920_083624_EX.mb58.gz 8.85MB Kongsberg multibeam vendor format
0045_20090924_231535_EX.mb58.gz 32.92MB Kongsberg multibeam vendor format
0045_20091006_191619_EX.mb58.gz 2.03MB Kongsberg multibeam vendor format
0045_20091011_180933_EX.mb58.gz 21.01MB Kongsberg multibeam vendor format
0045_20091016_235734_EX.mb58.gz 269.82MB Kongsberg multibeam vendor format
0045_20091020_080513_EX.mb58.gz 118.29MB Kongsberg multibeam vendor format
0045_20091106_163240_EX.mb58.gz 21.34MB Kongsberg multibeam vendor format
0046_20090920_084808_EX.mb58.gz 50.30MB Kongsberg multibeam vendor format
0046_20090925_000002_EX.mb58.gz 268.72MB Kongsberg multibeam vendor format
0046_20091006_191901_EX.mb58.gz 42.27MB Kongsberg multibeam vendor format
0046_20091011_183548_EX.mb58.gz 22.26MB Kongsberg multibeam vendor format
0046_20091017_055728_EX.mb58.gz 194.12MB Kongsberg multibeam vendor format
0046_20091020_104036_EX.mb58.gz 1.92MB Kongsberg multibeam vendor format
0046_20091106_170211_EX.mb58.gz 187.18MB Kongsberg multibeam vendor format
0047_20090920_101204_EX.mb58.gz 24.44MB Kongsberg multibeam vendor format
0047_20090925_055959_EX.mb58.gz 272.25MB Kongsberg multibeam vendor format
0047_20091006_201542_EX.mb58.gz 2.13MB Kongsberg multibeam vendor format
0047_20091011_190247_EX.mb58.gz 36.39MB Kongsberg multibeam vendor format
0047_20091020_104305_EX.mb58.gz 87.46MB Kongsberg multibeam vendor format
0047_20091020_172824_EX.mb58.gz 2.32MB Kongsberg multibeam vendor format
0047_20091106_210916_EX.mb58.gz 6.88MB Kongsberg multibeam vendor format
0048_20090920_104419_EX.mb58.gz 0.88MB Kongsberg multibeam vendor format
0048_20090925_120004_EX.mb58.gz 42.70MB Kongsberg multibeam vendor format
0048_20091011_205902_EX.mb58.gz 13.21MB Kongsberg multibeam vendor format
0048_20091020_123937_EX.mb58.gz 213.90MB Kongsberg multibeam vendor format
0048_20091020_173451_EX.mb58.gz 277.56MB Kongsberg multibeam vendor format
0048_20091106_211824_EX.mb58.gz 66.39MB Kongsberg multibeam vendor format
0049_20090920_104528_EX.mb58.gz 275.59MB Kongsberg multibeam vendor format
0049_20090925_125514_EX.mb58.gz 3.64MB Kongsberg multibeam vendor format
0049_20091011_213954_EX.mb58.gz 7.52MB Kongsberg multibeam vendor format
0049_20091020_233451_EX.mb58.gz 19.06MB Kongsberg multibeam vendor format
0049_20091106_224311_EX.mb58.gz 15.48MB Kongsberg multibeam vendor format
0050_20090920_164527_EX.mb58.gz 68.54MB Kongsberg multibeam vendor format
0050_20090925_125953_EX.mb58.gz 65.01MB Kongsberg multibeam vendor format
0050_20091021_000002_EX.mb58.gz 273.72MB Kongsberg multibeam vendor format
0050_20091106_230220_EX.mb58.gz 64.75MB Kongsberg multibeam vendor format
0051_20090920_215028_EX.mb58.gz 96.49MB Kongsberg multibeam vendor format
0051_20090925_142720_EX.mb58.gz 4.77MB Kongsberg multibeam vendor format
0051_20091021_060006_EX.mb58.gz 182.18MB Kongsberg multibeam vendor format
0051_20091107_002404_EX.mb58.gz 43.70MB Kongsberg multibeam vendor format
0052_20090920_235955_EX.mb58.gz 278.43MB Kongsberg multibeam vendor format
0052_20090925_143334_EX.mb58.gz 0.57MB Kongsberg multibeam vendor format
0052_20091021_100157_EX.mb58.gz 278.65MB Kongsberg multibeam vendor format
0052_20091107_012310_EX.mb58.gz 4.14MB Kongsberg multibeam vendor format
0053_20090921_055954_EX.mb58.gz 223.19MB Kongsberg multibeam vendor format
0053_20090925_143418_EX.mb58.gz 17.49MB Kongsberg multibeam vendor format
0053_20091021_160153_EX.mb58.gz 78.31MB Kongsberg multibeam vendor format
0053_20091107_012834_EX.mb58.gz 79.99MB Kongsberg multibeam vendor format
0054_20090921_104918_EX.mb58.gz 2.32MB Kongsberg multibeam vendor format
0054_20090925_145644_EX.mb58.gz 1.71MB Kongsberg multibeam vendor format
0054_20091107_031320_EX.mb58.gz 16.37MB Kongsberg multibeam vendor format
0055_20090921_105222_EX.mb58.gz 274.58MB Kongsberg multibeam vendor format
0055_20090925_145853_EX.mb58.gz 6.89MB Kongsberg multibeam vendor format
0055_20091107_033454_EX.mb58.gz 68.16MB Kongsberg multibeam vendor format
0056_20090921_165219_EX.mb58.gz 264.23MB Kongsberg multibeam vendor format
0056_20090925_150745_EX.mb58.gz 2.40MB Kongsberg multibeam vendor format
0056_20091107_050224_EX.mb58.gz 5.11MB Kongsberg multibeam vendor format
0057_20090925_151046_EX.mb58.gz 17.05MB Kongsberg multibeam vendor format
0057_20091107_050902_EX.mb58.gz 104.92MB Kongsberg multibeam vendor format
0058_20090925_153430_EX.mb58.gz 28.92MB Kongsberg multibeam vendor format
0058_20091107_072548_EX.mb58.gz 24.07MB Kongsberg multibeam vendor format
0059_20090925_161112_EX.mb58.gz 9.89MB Kongsberg multibeam vendor format
0059_20091107_075744_EX.mb58.gz 139.81MB Kongsberg multibeam vendor format
0060_20090925_162352_EX.mb58.gz 1.76MB Kongsberg multibeam vendor format
0060_20091107_110027_EX.mb58.gz 6.10MB Kongsberg multibeam vendor format
0061_20090925_162603_EX.mb58.gz 6.75MB Kongsberg multibeam vendor format
0061_20091107_110835_EX.mb58.gz 130.2KB Kongsberg multibeam vendor format
0062_20090925_163443_EX.mb58.gz 2.53MB Kongsberg multibeam vendor format
0062_20091107_110845_EX.mb58.gz 20.43MB Kongsberg multibeam vendor format
0063_20090925_163755_EX.mb58.gz 10.89MB Kongsberg multibeam vendor format
0063_20091107_113609_EX.mb58.gz 1.71MB Kongsberg multibeam vendor format
0064_20090925_165201_EX.mb58.gz 3.06MB Kongsberg multibeam vendor format
0064_20091107_113825_EX.mb58.gz 85.96MB Kongsberg multibeam vendor format
0065_20090925_165551_EX.mb58.gz 6.34MB Kongsberg multibeam vendor format
0065_20091107_133202_EX.mb58.gz 43.85MB Kongsberg multibeam vendor format
0066_20090925_170353_EX.mb58.gz 3.91MB Kongsberg multibeam vendor format
0066_20091107_142929_EX.mb58.gz 119.22MB Kongsberg multibeam vendor format
0067_20090925_170847_EX.mb58.gz 11.23MB Kongsberg multibeam vendor format
0067_20091107_170708_EX.mb58.gz 28.81MB Kongsberg multibeam vendor format
0068_20090925_172307_EX.mb58.gz 2.84MB Kongsberg multibeam vendor format
0068_20091107_174546_EX.mb58.gz 158.30MB Kongsberg multibeam vendor format
0069_20090925_172644_EX.mb58.gz 60.35MB Kongsberg multibeam vendor format
0069_20091107_211043_EX.mb58.gz 15.02MB Kongsberg multibeam vendor format
0070_20091107_213041_EX.mb58.gz 135.35MB Kongsberg multibeam vendor format
0071_20091108_002441_EX.mb58.gz 15.00MB Kongsberg multibeam vendor format
0072_20091108_004421_EX.mb58.gz 15.11MB Kongsberg multibeam vendor format
0073_20091108_010420_EX.mb58.gz 113.70MB Kongsberg multibeam vendor format
0074_20091108_032640_EX.mb58.gz 16.99MB Kongsberg multibeam vendor format
0075_20091108_034850_EX.mb58.gz 111.39MB Kongsberg multibeam vendor format
0076_20091108_060916_EX.mb58.gz 14.67MB Kongsberg multibeam vendor format
0077_20091108_062826_EX.mb58.gz 108.91MB Kongsberg multibeam vendor format
0078_20091108_084646_EX.mb58.gz 15.71MB Kongsberg multibeam vendor format
0079_20091108_090725_EX.mb58.gz 103.15MB Kongsberg multibeam vendor format
0080_20091108_111941_EX.mb58.gz 18.42MB Kongsberg multibeam vendor format
0081_20091108_114344_EX.mb58.gz 108.16MB Kongsberg multibeam vendor format
0082_20091108_140155_EX.mb58.gz 18.41MB Kongsberg multibeam vendor format
0083_20091108_142621_EX.mb58.gz 98.04MB Kongsberg multibeam vendor format
0084_20091108_163350_EX.mb58.gz 18.03MB Kongsberg multibeam vendor format
0085_20091108_165723_EX.mb58.gz 75.06MB Kongsberg multibeam vendor format
0086_20091108_183406_EX.mb58.gz 26.21MB Kongsberg multibeam vendor format
0087_20091108_190835_EX.mb58.gz 16.33MB Kongsberg multibeam vendor format
0088_20091108_193014_EX.mb58.gz 98.15MB Kongsberg multibeam vendor format
0089_20091108_213904_EX.mb58.gz 14.99MB Kongsberg multibeam vendor format
0090_20091108_215838_EX.mb58.gz 14.88MB Kongsberg multibeam vendor format
0091_20091108_232752_EX.mb58.gz 17.19MB Kongsberg multibeam vendor format
0092_20091108_234951_EX.mb58.gz 84.77MB Kongsberg multibeam vendor format
0093_20091109_014041_EX.mb58.gz 14.96MB Kongsberg multibeam vendor format
0094_20091109_020031_EX.mb58.gz 99.07MB Kongsberg multibeam vendor format
0095_20091109_041211_EX.mb58.gz 19.05MB Kongsberg multibeam vendor format
0096_20091109_043716_EX.mb58.gz 71.38MB Kongsberg multibeam vendor format
0097_20091109_061142_EX.mb58.gz 35.52MB Kongsberg multibeam vendor format
0098_20091109_065918_EX.mb58.gz 49.24MB Kongsberg multibeam vendor format
0099_20091109_080500_EX.mb58.gz 37.00MB Kongsberg multibeam vendor format
0100_20091109_085406_EX.mb58.gz 230.39MB Kongsberg multibeam vendor format
0101_20091109_135059_EX.mb58.gz 125.03MB Kongsberg multibeam vendor format
0102_20091109_163655_EX.mb58.gz 39.39MB Kongsberg multibeam vendor format
0103_20091109_172948_EX.mb58.gz 69.14MB Kongsberg multibeam vendor format
0104_20091109_190125_EX.mb58.gz 26.43MB Kongsberg multibeam vendor format
0105_20091109_193628_EX.mb58.gz 83.53MB Kongsberg multibeam vendor format
0106_20091109_212807_EX.mb58.gz 31.37MB Kongsberg multibeam vendor format
0107_20091109_232446_EX.mb58.gz 26.46MB Kongsberg multibeam vendor format
0108_20091110_000000_EX.mb58.gz 115.55MB Kongsberg multibeam vendor format
0109_20091110_023020_EX.mb58.gz 19.00MB Kongsberg multibeam vendor format
0110_20091110_025540_EX.mb58.gz 174.39MB Kongsberg multibeam vendor format
0111_20091110_064958_EX.mb58.gz 19.37MB Kongsberg multibeam vendor format
0112_20091110_071554_EX.mb58.gz 150.69MB Kongsberg multibeam vendor format
0113_20091110_103720_EX.mb58.gz 14.64MB Kongsberg multibeam vendor format
0114_20091110_105705_EX.mb58.gz 144.17MB Kongsberg multibeam vendor format
0115_20091110_141006_EX.mb58.gz 16.48MB Kongsberg multibeam vendor format
0116_20091110_143214_EX.mb58.gz 158.52MB Kongsberg multibeam vendor format
0117_20091110_180234_EX.mb58.gz 17.49MB Kongsberg multibeam vendor format
0118_20091110_182551_EX.mb58.gz 123.45MB Kongsberg multibeam vendor format
0119_20091110_211024_EX.mb58.gz 18.67MB Kongsberg multibeam vendor format
0120_20091110_213514_EX.mb58.gz 12.96MB Kongsberg multibeam vendor format
0121_20091110_215226_EX.mb58.gz 96.92MB Kongsberg multibeam vendor format
0122_20091111_000030_EX.mb58.gz 162.28MB Kongsberg multibeam vendor format
0123_20091111_034009_EX.mb58.gz 137.98MB Kongsberg multibeam vendor format
0124_20091111_062555_EX.mb58.gz 163.98MB Kongsberg multibeam vendor format
0125_20091111_100208_EX.mb58.gz 4.05MB Kongsberg multibeam vendor format

Full Resolution Bathymetry (processed): 368

Files File Size Description
EX0909_1_Transit_EXApril09_2009-234_0000_20090822_210611_EX.mb162 5.83MB Generic XYZ sounding format
EX0909_1_Transit_EXApril09_2009-234_0001_20090823_003942_EX.mb162 8.98MB Generic XYZ sounding format
EX0909_1_Transit_EXApril09_2009-235_0002_20090823_063936_EX.mb162 2.86MB Generic XYZ sounding format
EX0909_1_Transit_EXApril09_2009-235_0003_20090823_085737_EX.mb162 2.15MB Generic XYZ sounding format
EX0909_1_Transit_EXApril09_2009-235_0004_20090823_104217_EX.mb162 5.17MB Generic XYZ sounding format
EX0909_1_Transit_EXApril09_2009-235_0005_20090823_164216_EX.mb162 1.13MB Generic XYZ sounding format
EX0909_1_Transit_EXApril09_2009-235_0006_20090823_181257_EX.mb162 0.60MB Generic XYZ sounding format
EX0909_1_Transit_EXApril09_2009-235_0007_20090823_190553_EX.mb162 1.32MB Generic XYZ sounding format
EX0909_1_Transit_EXApril09_2009-235_0008_20090823_200418_EX.mb162 141.1KB Generic XYZ sounding format
EX0909_1_Transit_EXApril09_2009-235_0009_20090823_201255_EX.mb162 7.35MB Generic XYZ sounding format
EX0909_1_Transit_EXApril09_2009-235_0010_20090824_021300_EX.mb162 7.42MB Generic XYZ sounding format
EX0909_1_Transit_EXApril09_2009-235_0011_20090824_081259_EX.mb162 16.6KB Generic XYZ sounding format
EX0909_1_Transit_EXApril09_2009-235_0012_20090824_081414_EX.mb162 1.49MB Generic XYZ sounding format
EX0909_1_Transit_EXApril09_2009-236_0013_20090824_193922_EX.mb162 4.68MB Generic XYZ sounding format
EX0909_1_Transit_EXApril09_2009-236_0014_20090825_011530_EX.mb162 0.89MB Generic XYZ sounding format
EX0909_1_Transit_EXApril09_2009-236_0015_20090825_015203_EX.mb162 0.70MB Generic XYZ sounding format
EX0909_1_Transit_EXApril09_2009-236_0016_20090825_023358_EX.mb162 5.52MB Generic XYZ sounding format
EX0909_1_Transit_EXApril09_2009-236_0017_20090825_063050_EX.mb162 2.20MB Generic XYZ sounding format
EX0909_1_Transit_EXApril09_2009-237_0018_20090825_080244_EX.mb162 7.63MB Generic XYZ sounding format
EX0909_1_Transit_EXApril09_2009-237_0019_20090825_140244_EX.mb162 5.62MB Generic XYZ sounding format
EX0909_1_Transit_EXApril09_2009-244_0020_20090825_214437_EX.mb162 12.3KB Generic XYZ sounding format
EX0909_1_Transit_EXApril09_2009-244_0022_20090901_083014_EX.mb162 7.83MB Generic XYZ sounding format
EX0909_1_Transit_EXApril09_2009-244_0023_20090901_143015_EX.mb162 2.62MB Generic XYZ sounding format
EX0909_1_Transit_EXApril09_2009-244_0024_20090901_170652_EX.mb162 0.67MB Generic XYZ sounding format
EX0909_1_Transit_EXApril09_2009-244_0025_20090901_174506_EX.mb162 6.78MB Generic XYZ sounding format
EX0909_1_Transit_EXApril09_2009-244_0026_20090901_234500_EX.mb162 6.26MB Generic XYZ sounding format
EX0909_1_Transit_EXApril09_2009-245_0027_20090902_054501_EX.mb162 6.23MB Generic XYZ sounding format
EX0909_1_Transit_EXApril09_2009-245_0028_20090902_114459_EX.mb162 3.58MB Generic XYZ sounding format
EX0909_2_Transit_EXApril09_2009-256_0001_20090913_040638_EX.mb162 17.42MB Generic XYZ sounding format
EX0909_2_Transit_EXApril09_2009-256_0002_20090913_100644_EX.mb162 8.07MB Generic XYZ sounding format
EX0909_2_Transit_EXApril09_2009-256_0003_20090913_160644_EX.mb162 3.57MB Generic XYZ sounding format
EX0909_2_Transit_EXApril09_2009-256_0004_20090913_191844_EX.mb162 5.64MB Generic XYZ sounding format
EX0909_2_Transit_EXApril09_2009-257_0005_20090914_000108_EX.mb162 7.49MB Generic XYZ sounding format
EX0909_2_Transit_EXApril09_2009-257_0006_20090914_060107_EX.mb162 8.63MB Generic XYZ sounding format
EX0909_2_Transit_EXApril09_2009-257_0007_20090914_120110_EX.mb162 9.09MB Generic XYZ sounding format
EX0909_2_Transit_EXApril09_2009-264_0010_20090921_233218_EX.mb162 1.10MB Generic XYZ sounding format
EX0909_2_Transit_EXApril09_2009-265_0011_20090922_000121_EX.mb162 12.08MB Generic XYZ sounding format
EX0909_2_Transit_EXApril09_2009-265_0012_20090922_060127_EX.mb162 4.82MB Generic XYZ sounding format
EX0909_2_Transit_EXApril09_2009-265_0013_20090922_091556_EX.mb162 91.0KB Generic XYZ sounding format
EX0909_2_Transit_EXApril09_2009-265_0014_20090922_092004_EX.mb162 2.87MB Generic XYZ sounding format
EX0909_2_Transit_EXApril09_2009-265_0015_20090922_112616_EX.mb162 94.2KB Generic XYZ sounding format
EX0909_2_Transit_EXApril09_2009-265_0016_20090922_113029_EX.mb162 9.47MB Generic XYZ sounding format
EX0909_2_Transit_EXApril09_2009-265_0017_20090922_173030_EX.mb162 3.91MB Generic XYZ sounding format
EX0909_2_Transit_EXApril09_2009-265_0019_20090922_200956_EX.mb162 0.52MB Generic XYZ sounding format
EX0909_2_Transit_EXApril09_2009-265_0020_20090922_203119_EX.mb162 2.45MB Generic XYZ sounding format
EX0909_2_Transit_EXApril09_2009-265_0021_20090922_232417_EX.mb162 0.90MB Generic XYZ sounding format
EX0909_2_Transit_EXApril09_2009-266_0022_20090922_235955_EX.mb162 4.09MB Generic XYZ sounding format
EX0909_2_Transit_EXApril09_2009-266_0023_20090923_023822_EX.mb162 53.2KB Generic XYZ sounding format
EX0909_2_Transit_EXApril09_2009-266_0024_20090923_024037_EX.mb162 0.94MB Generic XYZ sounding format
EX0909_2_Transit_EXApril09_2009-266_0025_20090923_031306_EX.mb162 50.5KB Generic XYZ sounding format
EX0909_2_Transit_EXApril09_2009-266_0026_20090923_031543_EX.mb162 8.06MB Generic XYZ sounding format
EX0909_2_Transit_EXApril09_2009-266_0027_20090923_082007_EX.mb162 108.9KB Generic XYZ sounding format
EX0909_2_Transit_EXApril09_2009-266_0028_20090923_082408_EX.mb162 488.5KB Generic XYZ sounding format
EX0909_2_Transit_EXApril09_2009-266_0029_20090923_084217_EX.mb162 111.3KB Generic XYZ sounding format
EX0909_2_Transit_EXApril09_2009-266_0030_20090923_084646_EX.mb162 9.28MB Generic XYZ sounding format
EX0909_2_Transit_EXApril09_2009-266_0031_20090923_144638_EX.mb162 3.99MB Generic XYZ sounding format
EX0909_2_Transit_EXApril09_2009-266_0032_20090923_171844_EX.mb162 7.55MB Generic XYZ sounding format
EX0909_2_Transit_EXApril09_2009-266_0033_20090923_230838_EX.mb162 1.28MB Generic XYZ sounding format
EX0909_2_Transit_EXApril09_2009-267_0034_20090924_000000_EX.mb162 0.93MB Generic XYZ sounding format
EX0909_2_Transit_EXApril09_2009-267_0035_20090924_005421_EX.mb162 0.97MB Generic XYZ sounding format
EX0909_2_Transit_EXApril09_2009-267_0036_20090924_013222_EX.mb162 145.7KB Generic XYZ sounding format
EX0909_2_Transit_EXApril09_2009-267_0037_20090924_013756_EX.mb162 2.05MB Generic XYZ sounding format
EX0909_2_Transit_EXApril09_2009-267_0038_20090924_030105_EX.mb162 263.2KB Generic XYZ sounding format
EX0909_2_Transit_EXApril09_2009-267_0039_20090924_031201_EX.mb162 0.60MB Generic XYZ sounding format
EX0909_2_Transit_EXApril09_2009-267_0040_20090924_033552_EX.mb162 44.8KB Generic XYZ sounding format
EX0909_2_Transit_EXApril09_2009-267_0041_20090924_033807_EX.mb162 7.81MB Generic XYZ sounding format
EX0909_2_Transit_EXApril09_2009-267_0042_20090924_093805_EX.mb162 8.02MB Generic XYZ sounding format
EX0909_2_Transit_EXApril09_2009-267_0043_20090924_153810_EX.mb162 7.20MB Generic XYZ sounding format
EX0909_2_Transit_EXApril09_2009-267_0044_20090924_203516_EX.mb162 2.37MB Generic XYZ sounding format
EX0909_2_Transit_EXApril09_2009-267_0045_20090924_231535_EX.mb162 1.02MB Generic XYZ sounding format
EX0909_2_Transit_EXApril09_2009-268_0046_20090925_000002_EX.mb162 8.70MB Generic XYZ sounding format
EX0909_4_Transit_EXApril09_2009-301_0000_20091028_055356_EX.mb162 4.90MB Generic XYZ sounding format
EX0909_4_Transit_EXApril09_2009-301_0001_20091028_070324_EX.mb162 9.83MB Generic XYZ sounding format
EX0909_4_Transit_EXApril09_2009-301_0002_20091028_130326_EX.mb162 9.27MB Generic XYZ sounding format
EX0909_4_Transit_EXApril09_2009-301_0003_20091028_190325_EX.mb162 7.72MB Generic XYZ sounding format
EX0909_4_Transit_EXApril09_2009-302_0004_20091029_000003_EX.mb162 7.91MB Generic XYZ sounding format
EX0909_4_Transit_EXApril09_2009-302_0005_20091029_060028_EX.mb162 7.67MB Generic XYZ sounding format
EX0909_4_Transit_EXApril09_2009-302_0006_20091029_120026_EX.mb162 7.62MB Generic XYZ sounding format
EX0909_4_Transit_EXApril09_2009-302_0007_20091029_180027_EX.mb162 0.81MB Generic XYZ sounding format
EX0909_4_Transit_EXApril09_2009-302_0008_20091029_190521_EX.mb162 6.35MB Generic XYZ sounding format
EX0909_4_Transit_EXApril09_2009-303_0009_20091030_000005_EX.mb162 8.79MB Generic XYZ sounding format
EX0909_4_Transit_EXApril09_2009-303_0010_20091030_060007_EX.mb162 9.18MB Generic XYZ sounding format
EX0909_4_Transit_EXApril09_2009-303_0011_20091030_120004_EX.mb162 9.28MB Generic XYZ sounding format
EX0909_4_Transit_EXApril09_2009-303_0012_20091030_180001_EX.mb162 3.18MB Generic XYZ sounding format
EX0909_4_Transit_EXApril09_2009-303_0013_20091030_203503_EX.mb162 5.19MB Generic XYZ sounding format
EX0909_4_Transit_EXApril09_2009-304_0014_20091031_000024_EX.mb162 9.19MB Generic XYZ sounding format
EX0909_4_Transit_EXApril09_2009-304_0015_20091031_060021_EX.mb162 8.85MB Generic XYZ sounding format
EX0909_4_Transit_EXApril09_2009-304_0016_20091031_120019_EX.mb162 7.22MB Generic XYZ sounding format
EX0909_4_Transit_EXApril09_2009-304_0017_20091031_164748_EX.mb162 226.2KB Generic XYZ sounding format
EX0909_4_Transit_EXApril09_2009-315_0018_20091111_100838_EX.mb162 17.9KB Generic XYZ sounding format
EX0909_4_Transit_EXApril09_2009-315_0019_20091111_101559_EX.mb162 317.5KB Generic XYZ sounding format
EX0909_HawaiiIsland_EXApril09_2009-275_0000_20091002_030850_EX.mb162 15.54MB Generic XYZ sounding format
EX0909_HawaiiIsland_EXApril09_2009-275_0001_20091002_085816_EX.mb162 17.32MB Generic XYZ sounding format
EX0909_HawaiiIsland_EXApril09_2009-275_0002_20091002_145817_EX.mb162 1.08MB Generic XYZ sounding format
EX0909_HawaiiIsland_EXApril09_2009-275_0003_20091002_171952_EX.mb162 4.01MB Generic XYZ sounding format
EX0909_HawaiiIsland_EXApril09_2009-275_0004_20091002_192920_EX.mb162 3.38MB Generic XYZ sounding format
EX0909_HawaiiIsland_EXApril09_2009-276_0005_20091002_211445_EX.mb162 13.92MB Generic XYZ sounding format
EX0909_HawaiiIsland_EXApril09_2009-276_0006_20091003_010549_EX.mb162 10.00MB Generic XYZ sounding format
EX0909_HawaiiIsland_EXApril09_2009-276_0007_20091003_034436_EX.mb162 22.77MB Generic XYZ sounding format
EX0909_HawaiiIsland_EXApril09_2009-276_0008_20091003_074325_EX.mb162 8.30MB Generic XYZ sounding format
EX0909_HawaiiIsland_EXApril09_2009-276_0009_20091003_133005_EX.mb162 2.36MB Generic XYZ sounding format
EX0909_HawaiiIsland_EXApril09_2009-289_0044_20091016_175732_EX.mb162 10.24MB Generic XYZ sounding format
EX0909_HawaiiIsland_EXApril09_2009-289_0045_20091016_235734_EX.mb162 10.38MB Generic XYZ sounding format
EX0909_HawaiiIsland_EXApril09_2009-290_0046_20091017_055728_EX.mb162 8.42MB Generic XYZ sounding format
EX0909_HawaiiIsland_EXApril09_2009-293_0047_20091020_172824_EX.mb162 70.8KB Generic XYZ sounding format
EX0909_HawaiiIsland_EXApril09_2009-293_0048_20091020_173451_EX.mb162 11.00MB Generic XYZ sounding format
EX0909_HawaiiIsland_EXApril09_2009-293_0049_20091020_233451_EX.mb162 0.71MB Generic XYZ sounding format
EX0909_HawaiiIsland_EXApril09_2009-294_0050_20091021_000002_EX.mb162 9.48MB Generic XYZ sounding format
EX0909_Kealakekua_Bay_EXApril09_2009-280_0001_20091007_161656_EX.mb162 5.20MB Generic XYZ sounding format
EX0909_Kealakekua_Bay_EXApril09_2009-280_0002_20091007_190019_EX.mb162 6.18MB Generic XYZ sounding format
EX0909_Kealakekua_Bay_EXApril09_2009-281_0011_20091008_124815_EX.mb162 10.68MB Generic XYZ sounding format
EX0909_NeckerRidge_EXApril09_2009-238_0000_20090826_060627_EX.mb162 2.41MB Generic XYZ sounding format
EX0909_NeckerRidge_EXApril09_2009-238_0001_20090826_074756_EX.mb162 10.86MB Generic XYZ sounding format
EX0909_NeckerRidge_EXApril09_2009-238_0002_20090826_134758_EX.mb162 11.60MB Generic XYZ sounding format
EX0909_NeckerRidge_EXApril09_2009-238_0003_20090826_194800_EX.mb162 10.96MB Generic XYZ sounding format
EX0909_NeckerRidge_EXApril09_2009-238_0004_20090827_014801_EX.mb162 0.99MB Generic XYZ sounding format
EX0909_NeckerRidge_EXApril09_2009-238_0005_20090827_022422_EX.mb162 2.54MB Generic XYZ sounding format
EX0909_NeckerRidge_EXApril09_2009-238_0006_20090827_040207_EX.mb162 10.10MB Generic XYZ sounding format
EX0909_NeckerRidge_EXApril09_2009-238_0007_20090827_100209_EX.mb162 11.16MB Generic XYZ sounding format
EX0909_NeckerRidge_EXApril09_2009-239_0008_20090827_160209_EX.mb162 6.04MB Generic XYZ sounding format
EX0909_NeckerRidge_EXApril09_2009-239_0009_20090827_194711_EX.mb162 0.64MB Generic XYZ sounding format
EX0909_NeckerRidge_EXApril09_2009-239_0010_20090827_201019_EX.mb162 6.48MB Generic XYZ sounding format
EX0909_NeckerRidge_EXApril09_2009-240_0011_20090828_000005_EX.mb162 10.96MB Generic XYZ sounding format
EX0909_NeckerRidge_EXApril09_2009-240_0012_20090828_060009_EX.mb162 9.54MB Generic XYZ sounding format
EX0909_NeckerRidge_EXApril09_2009-240_0013_20090828_120001_EX.mb162 10.27MB Generic XYZ sounding format
EX0909_NeckerRidge_EXApril09_2009-240_0014_20090828_180003_EX.mb162 10.52MB Generic XYZ sounding format
EX0909_NeckerRidge_EXApril09_2009-241_0015_20090828_235954_EX.mb162 10.32MB Generic XYZ sounding format
EX0909_NeckerRidge_EXApril09_2009-241_0016_20090829_060000_EX.mb162 1.75MB Generic XYZ sounding format
EX0909_NeckerRidge_EXApril09_2009-241_0017_20090829_071403_EX.mb162 0.97MB Generic XYZ sounding format
EX0909_NeckerRidge_EXApril09_2009-241_0018_20090829_075708_EX.mb162 10.05MB Generic XYZ sounding format
EX0909_NeckerRidge_EXApril09_2009-241_0019_20090829_135707_EX.mb162 10.41MB Generic XYZ sounding format
EX0909_NeckerRidge_EXApril09_2009-241_0020_20090829_195712_EX.mb162 5.17MB Generic XYZ sounding format
EX0909_NeckerRidge_EXApril09_2009-241_0021_20090829_225506_EX.mb162 2.30MB Generic XYZ sounding format
EX0909_NeckerRidge_EXApril09_2009-242_0022_20090830_001857_EX.mb162 7.81MB Generic XYZ sounding format
EX0909_NeckerRidge_EXApril09_2009-242_0023_20090830_045121_EX.mb162 10.58MB Generic XYZ sounding format
EX0909_NeckerRidge_EXApril09_2009-242_0024_20090830_105121_EX.mb162 7.91MB Generic XYZ sounding format
EX0909_NeckerRidge_EXApril09_2009-242_0025_20090830_152556_EX.mb162 0.72MB Generic XYZ sounding format
EX0909_NeckerRidge_EXApril09_2009-242_0026_20090830_155314_EX.mb162 10.15MB Generic XYZ sounding format
EX0909_NeckerRidge_EXApril09_2009-242_0027_20090830_215315_EX.mb162 3.55MB Generic XYZ sounding format
EX0909_NeckerRidge_EXApril09_2009-243_0028_20090831_000200_EX.mb162 9.05MB Generic XYZ sounding format
EX0909_NeckerRidge_EXApril09_2009-259_0003_20090916_000008_EX.mb162 9.08MB Generic XYZ sounding format
EX0909_NeckerRidge_EXApril09_2009-259_0004_20090916_060005_EX.mb162 4.56MB Generic XYZ sounding format
EX0909_NeckerRidge_EXApril09_2009-259_0005_20090916_090305_EX.mb162 2.60MB Generic XYZ sounding format
EX0909_NeckerRidge_EXApril09_2009-259_0007_20090916_105216_EX.mb162 0.96MB Generic XYZ sounding format
EX0909_NeckerRidge_EXApril09_2009-259_0009_20090916_112751_EX.mb162 9.76MB Generic XYZ sounding format
EX0909_NeckerRidge_EXApril09_2009-259_0010_20090916_172750_EX.mb162 1.10MB Generic XYZ sounding format
EX0909_NeckerRidge_EXApril09_2009-259_0012_20090916_191853_EX.mb162 4.59MB Generic XYZ sounding format
EX0909_NeckerRidge_EXApril09_2009-259_0014_20090916_233127_EX.mb162 9.71MB Generic XYZ sounding format
EX0909_NeckerRidge_EXApril09_2009-260_0015_20090917_053129_EX.mb162 1.07MB Generic XYZ sounding format
EX0909_NeckerRidge_EXApril09_2009-260_0016_20090917_061300_EX.mb162 11.49MB Generic XYZ sounding format
EX0909_NeckerRidge_EXApril09_2009-260_0017_20090917_121306_EX.mb162 6.73MB Generic XYZ sounding format
EX0909_NeckerRidge_EXApril09_2009-260_0018_20090917_161621_EX.mb162 61.6KB Generic XYZ sounding format
EX0909_NeckerRidge_EXApril09_2009-260_0019_20090917_161841_EX.mb162 2.13MB Generic XYZ sounding format
EX0909_NeckerRidge_EXApril09_2009-260_0020_20090917_174411_EX.mb162 156.6KB Generic XYZ sounding format
EX0909_NeckerRidge_EXApril09_2009-260_0021_20090917_175028_EX.mb162 7.14MB Generic XYZ sounding format
EX0909_NeckerRidge_EXApril09_2009-260_0022_20090917_225134_EX.mb162 2.19MB Generic XYZ sounding format
EX0909_NeckerRidge_EXApril09_2009-261_0023_20090918_000006_EX.mb162 10.29MB Generic XYZ sounding format
EX0909_NeckerRidge_EXApril09_2009-261_0024_20090918_060010_EX.mb162 3.47MB Generic XYZ sounding format
EX0909_NeckerRidge_EXApril09_2009-261_0025_20090918_080622_EX.mb162 136.1KB Generic XYZ sounding format
EX0909_NeckerRidge_EXApril09_2009-261_0026_20090918_081059_EX.mb162 1.89MB Generic XYZ sounding format
EX0909_NeckerRidge_EXApril09_2009-261_0027_20090918_093101_EX.mb162 91.7KB Generic XYZ sounding format
EX0909_NeckerRidge_EXApril09_2009-261_0028_20090918_093549_EX.mb162 11.07MB Generic XYZ sounding format
EX0909_NeckerRidge_EXApril09_2009-261_0029_20090918_153550_EX.mb162 9.06MB Generic XYZ sounding format
EX0909_NeckerRidge_EXApril09_2009-261_0030_20090918_210712_EX.mb162 20.2KB Generic XYZ sounding format
EX0909_NeckerRidge_EXApril09_2009-261_0031_20090918_210834_EX.mb162 80.1KB Generic XYZ sounding format
EX0909_NeckerRidge_EXApril09_2009-261_0032_20090918_211256_EX.mb162 1.21MB Generic XYZ sounding format
EX0909_NeckerRidge_EXApril09_2009-261_0033_20090918_231052_EX.mb162 1.31MB Generic XYZ sounding format
EX0909_NeckerRidge_EXApril09_2009-261_0034_20090918_235957_EX.mb162 0.74MB Generic XYZ sounding format
EX0909_NeckerRidge_EXApril09_2009-262_0035_20090919_002823_EX.mb162 9.76MB Generic XYZ sounding format
EX0909_NeckerRidge_EXApril09_2009-262_0036_20090919_062816_EX.mb162 1.09MB Generic XYZ sounding format
EX0909_NeckerRidge_EXApril09_2009-262_0037_20090919_070208_EX.mb162 10.37MB Generic XYZ sounding format
EX0909_NeckerRidge_EXApril09_2009-262_0038_20090919_130211_EX.mb162 4.52MB Generic XYZ sounding format
EX0909_NeckerRidge_EXApril09_2009-262_0039_20090919_153938_EX.mb162 46.4KB Generic XYZ sounding format
EX0909_NeckerRidge_EXApril09_2009-262_0040_20090919_154221_EX.mb162 3.76MB Generic XYZ sounding format
EX0909_NeckerRidge_EXApril09_2009-262_0041_20090919_182357_EX.mb162 6.20MB Generic XYZ sounding format
EX0909_NeckerRidge_EXApril09_2009-262_0042_20090919_231617_EX.mb162 1.21MB Generic XYZ sounding format
EX0909_NeckerRidge_EXApril09_2009-263_0043_20090920_000004_EX.mb162 10.07MB Generic XYZ sounding format
EX0909_NeckerRidge_EXApril09_2009-263_0050_20090920_164527_EX.mb162 2.41MB Generic XYZ sounding format
EX0909_NeckerRidge_EXApril09_2009-263_0051_20090920_215028_EX.mb162 3.38MB Generic XYZ sounding format
EX0909_NeckerRidge_EXApril09_2009-263_0052_20090920_235955_EX.mb162 10.61MB Generic XYZ sounding format
EX0909_NeckerRidge_EXApril09_2009-264_0053_20090921_055954_EX.mb162 8.31MB Generic XYZ sounding format
EX0909_NeckerRidge_EXApril09_2009-264_0054_20090921_104918_EX.mb162 64.5KB Generic XYZ sounding format
EX0909_NeckerRidge_EXApril09_2009-264_0055_20090921_105222_EX.mb162 10.02MB Generic XYZ sounding format
EX0909_NeckerRidge_EXApril09_2009-264_0056_20090921_165219_EX.mb162 11.52MB Generic XYZ sounding format
EX0909_PMM_EXApril09_2009-290_0000_20091017_100629_EX.mb162 1.93MB Generic XYZ sounding format
EX0909_PMM_EXApril09_2009-290_0001_20091017_112609_EX.mb162 9.08MB Generic XYZ sounding format
EX0909_PMM_EXApril09_2009-290_0002_20091017_165214_EX.mb162 454.8KB Generic XYZ sounding format
EX0909_PMM_EXApril09_2009-290_0003_20091017_170909_EX.mb162 8.27MB Generic XYZ sounding format
EX0909_PMM_EXApril09_2009-290_0004_20091017_231225_EX.mb162 459.5KB Generic XYZ sounding format
EX0909_PMM_EXApril09_2009-290_0005_20091017_232952_EX.mb162 0.80MB Generic XYZ sounding format
EX0909_PMM_EXApril09_2009-291_0006_20091018_000009_EX.mb162 7.80MB Generic XYZ sounding format
EX0909_PMM_EXApril09_2009-291_0007_20091018_043845_EX.mb162 416.2KB Generic XYZ sounding format
EX0909_PMM_EXApril09_2009-291_0008_20091018_045509_EX.mb162 10.66MB Generic XYZ sounding format
EX0909_PMM_EXApril09_2009-291_0009_20091018_103849_EX.mb162 0.51MB Generic XYZ sounding format
EX0909_PMM_EXApril09_2009-291_0010_20091018_110243_EX.mb162 14.01MB Generic XYZ sounding format
EX0909_PMM_EXApril09_2009-291_0011_20091018_170246_EX.mb162 1.15MB Generic XYZ sounding format
EX0909_PMM_EXApril09_2009-291_0012_20091018_175051_EX.mb162 0.54MB Generic XYZ sounding format
EX0909_PMM_EXApril09_2009-291_0013_20091018_181201_EX.mb162 26.22MB Generic XYZ sounding format
EX0909_PMM_EXApril09_2009-291_0014_20091018_230544_EX.mb162 1.57MB Generic XYZ sounding format
EX0909_PMM_EXApril09_2009-292_0015_20091018_235958_EX.mb162 0.74MB Generic XYZ sounding format
EX0909_PMM_EXApril09_2009-292_0016_20091019_003110_EX.mb162 0.51MB Generic XYZ sounding format
EX0909_PMM_EXApril09_2009-292_0017_20091019_005604_EX.mb162 36.14MB Generic XYZ sounding format
EX0909_PMM_EXApril09_2009-292_0018_20091019_060601_EX.mb162 295.2KB Generic XYZ sounding format
EX0909_PMM_EXApril09_2009-292_0019_20091019_062049_EX.mb162 28.61MB Generic XYZ sounding format
EX0909_PMM_EXApril09_2009-292_0020_20091019_113100_EX.mb162 129.4KB Generic XYZ sounding format
EX0909_PMM_EXApril09_2009-292_0021_20091019_113609_EX.mb162 1.57MB Generic XYZ sounding format
EX0909_PMM_EXApril09_2009-292_0022_20091019_123731_EX.mb162 346.7KB Generic XYZ sounding format
EX0909_PMM_EXApril09_2009-292_0023_20091019_124748_EX.mb162 2.10MB Generic XYZ sounding format
EX0909_PMM_EXApril09_2009-292_0024_20091019_140045_EX.mb162 92.1KB Generic XYZ sounding format
EX0909_PMM_EXApril09_2009-292_0025_20091019_140330_EX.mb162 2.89MB Generic XYZ sounding format
EX0909_PMM_EXApril09_2009-292_0027_20091019_152025_EX.mb162 0.74MB Generic XYZ sounding format
EX0909_PMM_EXApril09_2009-292_0028_20091019_154345_EX.mb162 3.72MB Generic XYZ sounding format
EX0909_PMM_EXApril09_2009-292_0029_20091019_164028_EX.mb162 1.14MB Generic XYZ sounding format
EX0909_PMM_EXApril09_2009-292_0030_20091019_171403_EX.mb162 7.34MB Generic XYZ sounding format
EX0909_PMM_EXApril09_2009-292_0031_20091019_182611_EX.mb162 315.1KB Generic XYZ sounding format
EX0909_PMM_EXApril09_2009-292_0032_20091019_183402_EX.mb162 10.87MB Generic XYZ sounding format
EX0909_PMM_EXApril09_2009-292_0033_20091019_194052_EX.mb162 443.8KB Generic XYZ sounding format
EX0909_PMM_EXApril09_2009-292_0034_20091019_194833_EX.mb162 15.57MB Generic XYZ sounding format
EX0909_PMM_EXApril09_2009-292_0035_20091019_205041_EX.mb162 0.67MB Generic XYZ sounding format
EX0909_PMM_EXApril09_2009-292_0036_20091019_210018_EX.mb162 21.36MB Generic XYZ sounding format
EX0909_PMM_EXApril09_2009-292_0038_20091019_232558_EX.mb162 9.49MB Generic XYZ sounding format
EX0909_PMM_EXApril09_2009-293_0039_20091020_000002_EX.mb162 15.39MB Generic XYZ sounding format
EX0909_PMM_EXApril09_2009-293_0040_20091020_005159_EX.mb162 316.2KB Generic XYZ sounding format
EX0909_PMM_EXApril09_2009-293_0041_20091020_010120_EX.mb162 28.73MB Generic XYZ sounding format
EX0909_PMM_EXApril09_2009-293_0042_20091020_023445_EX.mb162 267.8KB Generic XYZ sounding format
EX0909_PMM_EXApril09_2009-293_0043_20091020_024431_EX.mb162 26.12MB Generic XYZ sounding format
EX0909_PMM_EXApril09_2009-293_0045_20091020_080513_EX.mb162 4.30MB Generic XYZ sounding format
EX0909_PMM_EXApril09_2009-293_0046_20091020_104036_EX.mb162 65.8KB Generic XYZ sounding format
EX0909_PMM_EXApril09_2009-293_0047_20091020_104305_EX.mb162 2.96MB Generic XYZ sounding format
EX0909_PMM_EXApril09_2009-293_0048_20091020_123937_EX.mb162 7.58MB Generic XYZ sounding format
EX0909_PMNMSmnts_EXApril09_2009-304_0000_20091031_165856_EX.mb162 8.42MB Generic XYZ sounding format
EX0909_PMNMSmnts_EXApril09_2009-304_0001_20091031_225853_EX.mb162 1.42MB Generic XYZ sounding format
EX0909_PMNMSmnts_EXApril09_2009-305_0002_20091101_000034_EX.mb162 3.02MB Generic XYZ sounding format
EX0909_PMNMSmnts_EXApril09_2009-305_0003_20091101_021110_EX.mb162 0.59MB Generic XYZ sounding format
EX0909_PMNMSmnts_EXApril09_2009-305_0004_20091101_023446_EX.mb162 8.51MB Generic XYZ sounding format
EX0909_PMNMSmnts_EXApril09_2009-305_0005_20091101_083440_EX.mb162 3.33MB Generic XYZ sounding format
EX0909_PMNMSmnts_EXApril09_2009-305_0006_20091101_111009_EX.mb162 481.5KB Generic XYZ sounding format
EX0909_PMNMSmnts_EXApril09_2009-305_0007_20091101_113444_EX.mb162 5.79MB Generic XYZ sounding format
EX0909_PMNMSmnts_EXApril09_2009-306_0011_20091102_002255_EX.mb162 8.16MB Generic XYZ sounding format
EX0909_PMNMSmnts_EXApril09_2009-306_0012_20091102_062255_EX.mb162 2.89MB Generic XYZ sounding format
EX0909_PMNMSmnts_EXApril09_2009-307_0019_20091103_005911_EX.mb162 3.71MB Generic XYZ sounding format
EX0909_PMNMSmnts_EXApril09_2009-307_0021_20091103_192544_EX.mb162 5.48MB Generic XYZ sounding format
EX0909_PMNMSmnts_EXApril09_2009-307_0024_20091104_181310_EX.mb162 2.98MB Generic XYZ sounding format
EX0909_PMNMSmnts_EXApril09_2009-307_0025_20091104_201948_EX.mb162 2.98MB Generic XYZ sounding format
EX0909_PMNMSmnts_EXApril09_2009-309_0026_20091105_024736_EX.mb162 2.06MB Generic XYZ sounding format
EX0909_PMNMSmnts_EXApril09_2009-309_0027_20091105_083022_EX.mb162 4.35MB Generic XYZ sounding format
EX0909_PMNMSmnts_EXApril09_2009-309_0028_20091105_110741_EX.mb162 7.80MB Generic XYZ sounding format
EX0909_PMNMSmnts_EXApril09_2009-309_0029_20091105_164324_EX.mb162 0.98MB Generic XYZ sounding format
EX0909_PMNMSmnts_EXApril09_2009-310_0031_20091105_234525_EX.mb162 3.12MB Generic XYZ sounding format
EX0909_PMNMSmnts_EXApril09_2009-310_0034_20091106_043000_EX.mb162 3.59MB Generic XYZ sounding format
EX0909_PMNMSmnts_EXApril09_2009-310_0035_20091106_064936_EX.mb162 0.58MB Generic XYZ sounding format
EX0909_PMNMSmnts_EXApril09_2009-310_0036_20091106_071419_EX.mb162 1.02MB Generic XYZ sounding format
EX0909_PMNMSmnts_EXApril09_2009-310_0037_20091106_095331_EX.mb162 64.7KB Generic XYZ sounding format
EX0909_PMNMSmnts_EXApril09_2009-310_0038_20091106_100007_EX.mb162 2.57MB Generic XYZ sounding format
EX0909_PMNMSmnts_EXApril09_2009-310_0039_20091106_120341_EX.mb162 157.9KB Generic XYZ sounding format
EX0909_PMNMSmnts_EXApril09_2009-310_0040_20091106_121336_EX.mb162 306.7KB Generic XYZ sounding format
EX0909_PMNMSmnts_EXApril09_2009-310_0041_20091106_124335_EX.mb162 253.9KB Generic XYZ sounding format
EX0909_PMNMSmnts_EXApril09_2009-310_0042_20091106_133642_EX.mb162 2.07MB Generic XYZ sounding format
EX0909_PMNMSmnts_EXApril09_2009-310_0043_20091106_153649_EX.mb162 126.8KB Generic XYZ sounding format
EX0909_PMNMSmnts_EXApril09_2009-310_0044_20091106_154037_EX.mb162 1.50MB Generic XYZ sounding format
EX0909_PMNMSmnts_EXApril09_2009-310_0045_20091106_163240_EX.mb162 270.5KB Generic XYZ sounding format
EX0909_PMNMSmnts_EXApril09_2009-310_0046_20091106_170211_EX.mb162 5.33MB Generic XYZ sounding format
EX0909_PMNMSmnts_EXApril09_2009-310_0047_20091106_210916_EX.mb162 192.1KB Generic XYZ sounding format
EX0909_PMNMSmnts_EXApril09_2009-310_0048_20091106_211824_EX.mb162 2.39MB Generic XYZ sounding format
EX0909_PMNMSmnts_EXApril09_2009-310_0050_20091106_230220_EX.mb162 2.36MB Generic XYZ sounding format
EX0909_PMNMSmnts_EXApril09_2009-311_0051_20091107_002404_EX.mb162 0.81MB Generic XYZ sounding format
EX0909_PMNMSmnts_EXApril09_2009-311_0052_20091107_012310_EX.mb162 124.8KB Generic XYZ sounding format
EX0909_PMNMSmnts_EXApril09_2009-311_0053_20091107_012834_EX.mb162 2.75MB Generic XYZ sounding format
EX0909_PMNMSmnts_EXApril09_2009-311_0054_20091107_031320_EX.mb162 0.54MB Generic XYZ sounding format
EX0909_PMNMSmnts_EXApril09_2009-311_0055_20091107_033454_EX.mb162 2.61MB Generic XYZ sounding format
EX0909_PMNMSmnts_EXApril09_2009-311_0057_20091107_050902_EX.mb162 3.41MB Generic XYZ sounding format
EX0909_PMNMSmnts_EXApril09_2009-311_0058_20091107_072548_EX.mb162 0.73MB Generic XYZ sounding format
EX0909_PMNMSmnts_EXApril09_2009-311_0059_20091107_075744_EX.mb162 4.85MB Generic XYZ sounding format
EX0909_PMNMSmnts_EXApril09_2009-311_0060_20091107_110027_EX.mb162 166.2KB Generic XYZ sounding format
EX0909_PMNMSmnts_EXApril09_2009-311_0062_20091107_110845_EX.mb162 0.68MB Generic XYZ sounding format
EX0909_PMNMSmnts_EXApril09_2009-311_0063_20091107_113609_EX.mb162 45.4KB Generic XYZ sounding format
EX0909_PMNMSmnts_EXApril09_2009-311_0064_20091107_113825_EX.mb162 2.36MB Generic XYZ sounding format
EX0909_PMNMSmnts_EXApril09_2009-311_0065_20091107_133202_EX.mb162 1.49MB Generic XYZ sounding format
EX0909_PMNMSmnts_EXApril09_2009-311_0066_20091107_142929_EX.mb162 3.85MB Generic XYZ sounding format
EX0909_PMNMSmnts_EXApril09_2009-311_0067_20091107_170708_EX.mb162 0.72MB Generic XYZ sounding format
EX0909_PMNMSmnts_EXApril09_2009-311_0068_20091107_174546_EX.mb162 5.74MB Generic XYZ sounding format
EX0909_PMNMSmnts_EXApril09_2009-311_0069_20091107_211043_EX.mb162 465.1KB Generic XYZ sounding format
EX0909_PMNMSmnts_EXApril09_2009-311_0070_20091107_213041_EX.mb162 5.76MB Generic XYZ sounding format
EX0909_PMNMSmnts_EXApril09_2009-312_0071_20091108_002441_EX.mb162 488.8KB Generic XYZ sounding format
EX0909_PMNMSmnts_EXApril09_2009-312_0072_20091108_004421_EX.mb162 478.6KB Generic XYZ sounding format
EX0909_PMNMSmnts_EXApril09_2009-312_0073_20091108_010420_EX.mb162 4.77MB Generic XYZ sounding format
EX0909_PMNMSmnts_EXApril09_2009-312_0074_20091108_032640_EX.mb162 0.50MB Generic XYZ sounding format
EX0909_PMNMSmnts_EXApril09_2009-312_0075_20091108_034850_EX.mb162 4.49MB Generic XYZ sounding format
EX0909_PMNMSmnts_EXApril09_2009-312_0076_20091108_060916_EX.mb162 0.54MB Generic XYZ sounding format
EX0909_PMNMSmnts_EXApril09_2009-312_0077_20091108_062826_EX.mb162 4.37MB Generic XYZ sounding format
EX0909_PMNMSmnts_EXApril09_2009-312_0078_20091108_084646_EX.mb162 417.6KB Generic XYZ sounding format
EX0909_PMNMSmnts_EXApril09_2009-312_0079_20091108_090725_EX.mb162 3.97MB Generic XYZ sounding format
EX0909_PMNMSmnts_EXApril09_2009-312_0080_20091108_111941_EX.mb162 0.63MB Generic XYZ sounding format
EX0909_PMNMSmnts_EXApril09_2009-312_0081_20091108_114344_EX.mb162 3.88MB Generic XYZ sounding format
EX0909_PMNMSmnts_EXApril09_2009-312_0082_20091108_140155_EX.mb162 0.56MB Generic XYZ sounding format
EX0909_PMNMSmnts_EXApril09_2009-312_0083_20091108_142621_EX.mb162 3.55MB Generic XYZ sounding format
EX0909_PMNMSmnts_EXApril09_2009-312_0084_20091108_163350_EX.mb162 0.62MB Generic XYZ sounding format
EX0909_PMNMSmnts_EXApril09_2009-312_0085_20091108_165723_EX.mb162 2.71MB Generic XYZ sounding format
EX0909_PMNMSmnts_EXApril09_2009-312_0086_20091108_183406_EX.mb162 0.85MB Generic XYZ sounding format
EX0909_PMNMSmnts_EXApril09_2009-312_0087_20091108_190835_EX.mb162 0.52MB Generic XYZ sounding format
EX0909_PMNMSmnts_EXApril09_2009-312_0088_20091108_193014_EX.mb162 3.45MB Generic XYZ sounding format
EX0909_PMNMSmnts_EXApril09_2009-312_0089_20091108_213904_EX.mb162 0.54MB Generic XYZ sounding format
EX0909_PMNMSmnts_EXApril09_2009-312_0090_20091108_215838_EX.mb162 0.56MB Generic XYZ sounding format
EX0909_PMNMSmnts_EXApril09_2009-312_0091_20091108_232752_EX.mb162 0.56MB Generic XYZ sounding format
EX0909_PMNMSmnts_EXApril09_2009-313_0092_20091108_234951_EX.mb162 2.64MB Generic XYZ sounding format
EX0909_PMNMSmnts_EXApril09_2009-313_0093_20091109_014041_EX.mb162 414.5KB Generic XYZ sounding format
EX0909_PMNMSmnts_EXApril09_2009-313_0094_20091109_020031_EX.mb162 3.13MB Generic XYZ sounding format
EX0909_PMNMSmnts_EXApril09_2009-313_0095_20091109_041211_EX.mb162 0.65MB Generic XYZ sounding format
EX0909_PMNMSmnts_EXApril09_2009-313_0096_20091109_043716_EX.mb162 2.31MB Generic XYZ sounding format
EX0909_PMNMSmnts_EXApril09_2009-313_0097_20091109_061142_EX.mb162 1.06MB Generic XYZ sounding format
EX0909_PMNMSmnts_EXApril09_2009-313_0098_20091109_065918_EX.mb162 1.66MB Generic XYZ sounding format
EX0909_PMNMSmnts_EXApril09_2009-313_0099_20091109_080500_EX.mb162 1.25MB Generic XYZ sounding format
EX0909_PMNMSmnts_EXApril09_2009-313_0100_20091109_085406_EX.mb162 9.22MB Generic XYZ sounding format
EX0909_PMNMSmnts_EXApril09_2009-313_0101_20091109_135059_EX.mb162 4.18MB Generic XYZ sounding format
EX0909_PMNMSmnts_EXApril09_2009-313_0102_20091109_163655_EX.mb162 1.09MB Generic XYZ sounding format
EX0909_PMNMSmnts_EXApril09_2009-313_0103_20091109_172948_EX.mb162 2.31MB Generic XYZ sounding format
EX0909_PMNMSmnts_EXApril09_2009-313_0104_20091109_190125_EX.mb162 0.83MB Generic XYZ sounding format
EX0909_PMNMSmnts_EXApril09_2009-313_0105_20091109_193628_EX.mb162 2.73MB Generic XYZ sounding format
EX0909_PMNMSmnts_EXApril09_2009-313_0106_20091109_212807_EX.mb162 0.91MB Generic XYZ sounding format
EX0909_PMNMSmnts_EXApril09_2009-313_0107_20091109_232446_EX.mb162 0.86MB Generic XYZ sounding format
EX0909_PMNMSmnts_EXApril09_2009-314_0108_20091110_000000_EX.mb162 3.83MB Generic XYZ sounding format
EX0909_PMNMSmnts_EXApril09_2009-314_0109_20091110_023020_EX.mb162 0.50MB Generic XYZ sounding format
EX0909_PMNMSmnts_EXApril09_2009-314_0110_20091110_025540_EX.mb162 5.82MB Generic XYZ sounding format
EX0909_PMNMSmnts_EXApril09_2009-314_0111_20091110_064958_EX.mb162 0.54MB Generic XYZ sounding format
EX0909_PMNMSmnts_EXApril09_2009-314_0112_20091110_071554_EX.mb162 5.12MB Generic XYZ sounding format
EX0909_PMNMSmnts_EXApril09_2009-314_0113_20091110_103720_EX.mb162 426.7KB Generic XYZ sounding format
EX0909_PMNMSmnts_EXApril09_2009-314_0114_20091110_105705_EX.mb162 4.52MB Generic XYZ sounding format
EX0909_PMNMSmnts_EXApril09_2009-314_0115_20091110_141006_EX.mb162 493.8KB Generic XYZ sounding format
EX0909_PMNMSmnts_EXApril09_2009-314_0116_20091110_143214_EX.mb162 5.15MB Generic XYZ sounding format
EX0909_PMNMSmnts_EXApril09_2009-314_0117_20091110_180234_EX.mb162 478.3KB Generic XYZ sounding format
EX0909_PMNMSmnts_EXApril09_2009-314_0118_20091110_182551_EX.mb162 4.19MB Generic XYZ sounding format
EX0909_PMNMSmnts_EXApril09_2009-314_0119_20091110_211024_EX.mb162 0.57MB Generic XYZ sounding format
EX0909_PMNMSmnts_EXApril09_2009-314_0120_20091110_213514_EX.mb162 453.1KB Generic XYZ sounding format
EX0909_PMNMSmnts_EXApril09_2009-314_0121_20091110_215226_EX.mb162 3.28MB Generic XYZ sounding format
EX0909_PMNMSmnts_EXApril09_2009-315_0122_20091111_000030_EX.mb162 3.24MB Generic XYZ sounding format
EX0909_PMNMSmnts_EXApril09_2009-315_0123_20091111_034009_EX.mb162 6.85MB Generic XYZ sounding format
EX0909_PMNMSmnts_EXApril09_2009-315_0124_20091111_062555_EX.mb162 4.21MB Generic XYZ sounding format
EX0909_PMNMSmnts_EXApril09_2009-315_0125_20091111_100208_EX.mb162 15.4KB Generic XYZ sounding format
EX0909_SeaStateTest_EXApril09_2009-277_0000_20091003_232450_EX.mb162 0.62MB Generic XYZ sounding format
EX0909_SeaStateTest_EXApril09_2009-277_0001_20091004_000003_EX.mb162 351.7KB Generic XYZ sounding format
EX0909_SeaStateTest_EXApril09_2009-277_0002_20091004_010542_EX.mb162 1.53MB Generic XYZ sounding format
EX0909_SeaStateTest_EXApril09_2009-277_0003_20091004_021816_EX.mb162 1.44MB Generic XYZ sounding format
EX0909_SeaStateTest_EXApril09_2009-277_0004_20091004_034252_EX.mb162 1.91MB Generic XYZ sounding format
EX0909_SeaStateTest_EXApril09_2009-277_0005_20091004_045101_EX.mb162 2.04MB Generic XYZ sounding format
EX0909_SeaStateTest_EXApril09_2009-277_0006_20091004_061112_EX.mb162 1.77MB Generic XYZ sounding format
EX0909_SeaStateTest_EXApril09_2009-277_0007_20091004_071114_EX.mb162 1.83MB Generic XYZ sounding format
EX0909_SeaStateTest_EXApril09_2009-277_0008_20091004_082301_EX.mb162 2.07MB Generic XYZ sounding format
EX0909_WiniSeaMnt_EXApril09_2009-276_0000_20091003_164419_EX.mb162 4.04MB Generic XYZ sounding format
EX0909_WiniSeaMnt_EXApril09_2009-277_0001_20091004_110818_EX.mb162 19.8KB Generic XYZ sounding format
EX0909_WiniSeaMnt_EXApril09_2009-277_0002_20091004_111226_EX.mb162 2.83MB Generic XYZ sounding format
EX0909_WiniSeaMnt_EXApril09_2009-277_0003_20091004_151508_EX.mb162 341.6KB Generic XYZ sounding format
EX0909_WiniSeaMnt_EXApril09_2009-277_0004_20091004_154255_EX.mb162 4.66MB Generic XYZ sounding format
EX0909_WiniSeaMnt_EXApril09_2009-277_0005_20091004_185006_EX.mb162 435.2KB Generic XYZ sounding format
EX0909_WiniSeaMnt_EXApril09_2009-277_0006_20091004_191628_EX.mb162 4.66MB Generic XYZ sounding format
EX0909_WiniSeaMnt_EXApril09_2009-277_0007_20091004_230428_EX.mb162 459.4KB Generic XYZ sounding format
EX0909_WiniSeaMnt_EXApril09_2009-277_0008_20091004_233744_EX.mb162 455.0KB Generic XYZ sounding format
EX0909_WiniSeaMnt_EXApril09_2009-278_0009_20091004_235955_EX.mb162 2.00MB Generic XYZ sounding format
EX0909_WiniSeaMnt_EXApril09_2009-278_0010_20091005_023244_EX.mb162 2.00MB Generic XYZ sounding format
EX0909_WiniSeaMnt_EXApril09_2009-278_0011_20091005_035853_EX.mb162 113.0KB Generic XYZ sounding format
EX0909_WiniSeaMnt_EXApril09_2009-278_0012_20091005_040454_EX.mb162 2.44MB Generic XYZ sounding format
EX0909_WiniSeaMnt_EXApril09_2009-278_0013_20091005_053210_EX.mb162 486.9KB Generic XYZ sounding format
EX0909_WiniSeaMnt_EXApril09_2009-278_0014_20091005_055847_EX.mb162 1.30MB Generic XYZ sounding format
EX0909_WiniSeaMnt_EXApril09_2009-278_0015_20091005_072326_EX.mb162 343.2KB Generic XYZ sounding format
EX0909_WiniSeaMnt_EXApril09_2009-278_0016_20091005_074748_EX.mb162 4.31MB Generic XYZ sounding format
EX0909_WiniSeaMnt_EXApril09_2009-278_0020_20091005_150654_EX.mb162 3.87MB Generic XYZ sounding format
EX0909_WiniSeaMnt_EXApril09_2009-278_0021_20091005_175313_EX.mb162 306.1KB Generic XYZ sounding format
EX0909_WiniSeaMnt_EXApril09_2009-278_0022_20091005_181631_EX.mb162 3.42MB Generic XYZ sounding format
EX0909_WiniSeaMnt_EXApril09_2009-279_0028_20091006_011302_EX.mb162 2.82MB Generic XYZ sounding format

Products: 38

Files File Size Description
EX0909_4_Transit_0_001Deg_LL_WGS84.sd.gz 3.53MB Fledermaus surface
EX0909_4_Transit_100m_LL_WGS84.txt.gz 6.47MB ASCII text product
EX0909_HawaiiIs_Transit_0_001Deg_WGS84.sd.gz 3.97MB Fledermaus surface
EX0909_HawaiiIs_Transit_0_001Deg_WGS84.xyz.gz 4.72MB xyz grid file provided by the originator
EX0909_Kealakekua_Bay_0_001Deg_WGS84.sd.gz 2.83MB Fledermaus surface
EX0909_Kealakekua_Bay_0_001Deg_WGS84.xyz.gz 4.14MB xyz grid file provided by the originator
EX0909_Leg1_NeckerRidge.sd.gz 5.04MB Fledermaus surface
EX0909_Leg1_NeckerRidge_LongLat_100m.jpg.gz 188.0KB JPEG survey image
EX0909_Leg1_NeckerRidge_LongLat_100m.tif.gz 502.8KB GeoTIFF survey image
EX0909_Leg1_NeckerRidge_LongLat_100m.xyz.gz 7.14MB xyz grid file provided by the originator
EX0909_Leg1_NeckerRidge_WGS84.sd.gz 5.04MB Fledermaus surface
EX0909_Leg1_Transit.sd.gz 2.54MB Fledermaus surface
EX0909_Leg1_Transit_LongLat_100m.jpg.gz 55.2KB JPEG survey image
EX0909_Leg1_Transit_LongLat_100m.tif.gz 81.1KB GeoTIFF survey image
EX0909_Leg1_Transit_LongLat_100m.xyz.gz 4.07MB xyz grid file provided by the originator
EX0909_Leg1_Transit_WGS84.sd.gz 2.54MB Fledermaus surface
EX0909_Leg2_NeckerRidge.sd.gz 7.39MB Fledermaus surface
EX0909_Leg2_NeckerRidge_LongLat_100m.jpg.gz 176.7KB JPEG survey image
EX0909_Leg2_NeckerRidge_LongLat_100m.tif.gz 315.6KB GeoTIFF survey image
EX0909_Leg2_NeckerRidge_LongLat_100m.xyz.gz 10.59MB xyz grid file provided by the originator
EX0909_Leg2_Transit.sd.gz 5.27MB Fledermaus surface
EX0909_Leg2_Transit_LongLat_100m.jpg.gz 68.9KB JPEG survey image
EX0909_Leg2_Transit_LongLat_100m.tif.gz 93.9KB GeoTIFF survey image
EX0909_Leg2_Transit_LongLat_100m.xyz.gz 7.94MB xyz grid file provided by the originator
EX0909_Leg2_WreckInvestigation.sd.gz 298.1KB Fledermaus surface
EX0909_Leg2_WreckInvestigation_LongLat_50m.jpg.gz 0.60MB JPEG survey image
EX0909_Leg2_WreckInvestigation_LongLat_50m.tif.gz 2.92MB GeoTIFF survey image
EX0909_Leg2_WreckInvestigation_LongLat_50m.xyz.gz 472.1KB xyz grid file provided by the originator
EX0909_Leg3_0_001Deg_LL_WGS84.jpg.gz 287.4KB JPEG survey image
EX0909_Leg3_0_001Deg_LL_WGS84.tif.gz 0.65MB GeoTIFF survey image
EX0909_Leg3_PMM_0_001Deg_LL_WGS84.jpg.gz 0.56MB JPEG survey image
EX0909_Leg3_PMM_0_001Deg_LL_WGS84.tif.gz 2.17MB GeoTIFF survey image
EX0909_PMM_0_001Deg_WGS84.sd.gz 1.50MB Fledermaus surface
EX0909_PMM_0_001Deg_WGS84.xyz.gz 2.32MB xyz grid file provided by the originator
EX0909_PMNM_0_001Deg_LL_WGS84.sd.gz 4.45MB Fledermaus surface
EX0909_PMNM_50m_LL_WGS84.txt.gz 48.96MB ASCII text product
EX0909_WiniSeamount_0_001Deg_WGS84.sd.gz 1.22MB Fledermaus surface
EX0909_WiniSeamount_0_001Deg_WGS84.xyz.gz 1.94MB xyz grid file provided by the originator

Metadata Files: 20

Files File Size Description
EX0909_Multibeam.xml NCEI created ISO metadata
EX0909_Leg1_Mapping_Data_Report.pdf 1.57MB PDF metadata file
EX0909_Leg2_Mapping_Data_Report.pdf 1.27MB PDF metadata file
EX0909_Leg3_Mapping_Data_Report.pdf 2.32MB PDF metadata file
EX0909_Leg4_Mapping_Data_Report.pdf 4.42MB PDF metadata file
EX0909_CruiseLevel.xml 3.0KB XML metadata file
v1_file_metadata.tar.gz 51.0KB File level metadata
Level_2_Data_EX0909_Leg1_Geotiff.xml 14.0KB XML metadata file
Level_2_Data_EX0909_Leg1_IVS_sd_File.xml 14.0KB XML metadata file
Level_2_Data_EX0909_Leg1_XYZ_of_Survey_Area.xml 14.1KB XML metadata file
Level_2_Data_EX0909_Leg2_Geotiff.xml 18.5KB XML metadata file
Level_2_Data_EX0909_Leg2_IVS_sd_File.xml 18.5KB XML metadata file
Level_2_Data_EX0909_Leg2_XYZ_of_Survey_Area.xml 18.6KB XML metadata file
Level_2_Data_EX0909_Leg3_Geotiff.xml 25.3KB XML metadata file
Level_2_Data_EX0909_Leg3_IVS_sd_File.xml 25.3KB XML metadata file
Level_2_Data_EX0909_Leg3_XYZ_of_Survey_Area.xml 25.4KB XML metadata file
Level_2_Data_EX0909_Leg4_Geotiff.xml 19.0KB XML metadata file
Level_2_Data_EX0909_Leg4_IVS_sd_File.xml 19.0KB XML metadata file
Level_2_Data_EX0909_Leg4_XYZ_of_Survey_Area.xml 19.1KB XML metadata file
v2_file_metadata.tar.gz 51.0KB File level metadata

Ancillary Files: 10

Files File Size Description
ctd_leg1.tar.gz 3.16MB Conductivity, Temperature, Depth (CTD) data
ctd_leg2.tar.gz 4.24MB Conductivity, Temperature, Depth (CTD) data
ctd_leg3.tar.gz 3.22MB Conductivity, Temperature, Depth (CTD) data
ctd_leg4.tar.gz 3.15MB Conductivity, Temperature, Depth (CTD) data
support.tar.gz 18.12MB Supporting data
svp_leg2.tar.gz 234.3KB Sound Speed Profiles (SSP or SVP)
xbt_leg1.tar.gz 0.89MB Expendable Bathythermograph (XBT) data
xbt_leg2.tar.gz 0.70MB Expendable Bathythermograph (XBT) data
xbt_leg3.tar.gz 1.04MB Expendable Bathythermograph (XBT) data
xbt_leg4.tar.gz 0.57MB Expendable Bathythermograph (XBT) data

Water Column Sonar Data

Water Column Sonar Data Available: WCSD Map Viewer